| time (UTC) | temp F | wind direction | speed knots | gust knots | rain 1hr in | rain 24hr in | rain mn in | humidity % | barometer mb |
| 20260506034056 | 62 | 0 | 7.0 | 13.0 | 0.00 | 0.00 | 0.00 | 79 | 1009.3 |
| 20260506033954 | 62 | 358 | 6.1 | 12.2 | 0.00 | 0.00 | 0.00 | 79 | 1009.2 |
| 20260506033849 | 62 | 344 | 6.1 | 12.2 | 0.00 | 0.00 | 0.00 | 79 | 1009.2 |
| 20260506033732 | 62 | 0 | 7.0 | 12.2 | 0.00 | 0.00 | 0.00 | 79 | 1009.3 |
| 20260506033645 | 62 | 350 | 7.0 | 12.2 | 0.00 | 0.00 | 0.00 | 79 | 1009.4 |
| 20260506033541 | 62 | 28 | 7.0 | 12.2 | 0.00 | 0.00 | 0.00 | 79 | 1009.3 |
| 20260506033437 | 62 | 0 | 7.0 | 12.2 | 0.00 | 0.00 | 0.00 | 79 | 1009.3 |
| 20260506033337 | 62 | 329 | 6.1 | 12.2 | 0.00 | 0.00 | 0.00 | 79 | 1009.3 |
| 20260506033233 | 62 | 7 | 6.1 | 12.2 | 0.00 | 0.00 | 0.00 | 79 | 1009.3 |
| 20260506033133 | 62 | 0 | 7.0 | 12.2 | 0.00 | 0.00 | 0.00 | 79 | 1009.2 |
| 20260506033033 | 62 | 14 | 8.7 | 13.0 | 0.00 | 0.00 | 0.00 | 79 | 1009.1 |
| 20260506032934 | 62 | 0 | 8.7 | 13.0 | 0.00 | 0.00 | 0.00 | 79 | 1009.1 |
| 20260506032833 | 62 | 0 | 7.8 | 13.0 | 0.00 | 0.00 | 0.00 | 79 | 1009.1 |
| 20260506032732 | 62 | 0 | 7.0 | 13.0 | 0.00 | 0.00 | 0.00 | 79 | 1009.2 |
| 20260506032633 | 62 | 293 | 7.0 | 13.0 | 0.00 | 0.00 | 0.00 | 79 | 1009.1 |
| 20260506032535 | 62 | 357 | 7.0 | 13.0 | 0.00 | 0.00 | 0.00 | 79 | 1009.3 |
| 20260506032432 | 62 | 4 | 6.1 | 13.0 | 0.00 | 0.00 | 0.00 | 79 | 1009.2 |
| 20260506032332 | 62 | 355 | 6.1 | 13.0 | 0.00 | 0.00 | 0.00 | 79 | 1009.2 |
| 20260506032235 | 62 | 0 | 7.8 | 13.0 | 0.00 | 0.00 | 0.00 | 79 | 1009.2 |
| 20260506032132 | 63 | 0 | 7.8 | 13.0 | 0.00 | 0.00 | 0.00 | 79 | 1009.2 |
| 20260506032032 | 63 | 354 | 7.0 | 13.0 | 0.00 | 0.00 | 0.00 | 79 | 1009.3 |
| 20260506031933 | 63 | 353 | 8.7 | 13.0 | 0.00 | 0.00 | 0.00 | 79 | 1009.2 |
| 20260506031835 | 63 | 0 | 7.8 | 13.0 | 0.00 | 0.00 | 0.00 | 79 | 1009.1 |
| 20260506031735 | 63 | 0 | 6.1 | 13.0 | 0.00 | 0.00 | 0.00 | 79 | 1009.2 |
| 20260506031633 | 63 | 343 | 7.8 | 13.0 | 0.00 | 0.00 | 0.00 | 79 | 1009.2 |
| 20260506031534 | 63 | 351 | 7.8 | 13.0 | 0.00 | 0.00 | 0.00 | 79 | 1009.2 |
| 20260506031433 | 63 | 0 | 7.8 | 13.0 | 0.00 | 0.00 | 0.00 | 80 | 1009.2 |
| 20260506031333 | 63 | 354 | 7.8 | 13.0 | 0.00 | 0.00 | 0.00 | 80 | 1009.1 |
| 20260506031234 | 63 | 0 | 6.1 | 12.2 | 0.00 | 0.00 | 0.00 | 80 | 1009.0 |
| 20260506031149 | 63 | 333 | 8.7 | 12.2 | 0.00 | 0.00 | 0.00 | 80 | 1008.9 |
| 20260506031140 | 63 | 358 | 5.2 | 12.2 | 0.00 | 0.00 | 0.00 | 80 | 1008.9 |
| 20260506031111 | 63 | 0 | 6.1 | 12.2 | 0.00 | 0.00 | 0.00 | 80 | 1009.0 |
| 20260506031042 | 63 | 354 | 7.0 | 12.2 | 0.00 | 0.00 | 0.00 | 80 | 1008.9 |
| 20260506031012 | 63 | 30 | 7.8 | 12.2 | 0.00 | 0.00 | 0.00 | 79 | 1008.8 |
| 20260506030942 | 63 | 333 | 8.7 | 12.2 | 0.00 | 0.00 | 0.00 | 80 | 1008.9 |
| 20260506030633 | 64 | 0 | 6.1 | 11.3 | 0.00 | 0.00 | 0.00 | 80 | 1008.9 |
| 20260506030535 | 64 | 8 | 5.2 | 11.3 | 0.00 | 0.00 | 0.00 | 80 | 1008.9 |
| 20260506030433 | 64 | 0 | 6.1 | 11.3 | 0.00 | 0.00 | 0.00 | 80 | 1008.8 |
| 20260506030334 | 64 | 355 | 7.0 | 11.3 | 0.00 | 0.00 | 0.00 | 80 | 1008.8 |
| 20260506030231 | 64 | 0 | 7.8 | 11.3 | 0.00 | 0.00 | 0.00 | 80 | 1008.8 |
| 20260506030133 | 64 | 0 | 7.0 | 11.3 | 0.00 | 0.00 | 0.00 | 80 | 1008.8 |
| 20260506030033 | 64 | 0 | 6.1 | 10.4 | 0.00 | 0.00 | 0.00 | 80 | 1008.8 |
| 20260506025931 | 64 | 0 | 5.2 | 12.2 | 0.00 | 0.00 | 0.00 | 80 | 1008.8 |
| 20260506025831 | 64 | 357 | 5.2 | 12.2 | 0.00 | 0.00 | 0.00 | 79 | 1008.8 |
| 20260506025732 | 64 | 0 | 6.1 | 12.2 | 0.00 | 0.00 | 0.00 | 79 | 1008.8 |
| 20260506025631 | 64 | 4 | 7.0 | 12.2 | 0.00 | 0.00 | 0.00 | 79 | 1008.8 |
| 20260506025533 | 64 | 41 | 6.1 | 12.2 | 0.00 | 0.00 | 0.00 | 79 | 1008.7 |
| 20260506025432 | 64 | 333 | 5.2 | 12.2 | 0.00 | 0.00 | 0.00 | 79 | 1008.5 |
| 20260506025333 | 64 | 4 | 5.2 | 12.2 | 0.00 | 0.00 | 0.00 | 79 | 1008.7 |
| 20260506025232 | 64 | 3 | 5.2 | 12.2 | 0.00 | 0.00 | 0.00 | 79 | 1008.5 |
| 20260506025226 | 64 | 353 | 5.2 | 12.2 | 0.00 | 0.00 | 0.00 | 79 | 1008.5 |
| 20260506025134 | 64 | 10 | 7.0 | 12.2 | 0.00 | 0.00 | 0.00 | 79 | 1008.5 |
| 20260506025128 | 64 | 0 | 5.2 | 11.3 | 0.00 | 0.00 | 0.00 | 79 | 1008.4 |
| 20260506025057 | 64 | 0 | 7.8 | 12.2 | 0.00 | 0.00 | 0.00 | 79 | 1008.5 |
| 20260506025033 | 64 | 317 | 6.1 | 10.4 | 0.00 | 0.00 | 0.00 | 79 | 1008.5 |
| 20260506025002 | 64 | 0 | 6.1 | 10.4 | 0.00 | 0.00 | 0.00 | 79 | 1008.5 |
| 20260506024721 | 64 | 331 | 5.2 | 12.2 | 0.00 | 0.00 | 0.00 | 79 | 1008.4 |
| 20260506024620 | 64 | 16 | 5.2 | 12.2 | 0.00 | 0.00 | 0.00 | 78 | 1008.4 |
| 20260506024518 | 65 | 336 | 5.2 | 12.2 | 0.00 | 0.00 | 0.00 | 78 | 1008.4 |
| 20260506024417 | 65 | 324 | 6.1 | 12.2 | 0.00 | 0.00 | 0.00 | 78 | 1008.3 |
| 20260506024306 | 65 | 0 | 5.2 | 12.2 | 0.00 | 0.00 | 0.00 | 78 | 1008.3 |
| 20260506024226 | 65 | 338 | 6.1 | 13.0 | 0.00 | 0.00 | 0.00 | 78 | 1008.2 |
| 20260506024204 | 65 | 1 | 7.0 | 13.0 | 0.00 | 0.00 | 0.00 | 78 | 1008.2 |
| 20260506024104 | 65 | 0 | 7.0 | 13.0 | 0.00 | 0.00 | 0.00 | 78 | 1008.1 |
| 20260506024005 | 65 | 7 | 6.1 | 13.9 | 0.00 | 0.00 | 0.00 | 78 | 1008.1 |
| 20260506023900 | 65 | 0 | 7.8 | 13.9 | 0.00 | 0.00 | 0.00 | 78 | 1008.1 |
| 20260506023800 | 65 | 351 | 7.8 | 13.9 | 0.00 | 0.00 | 0.00 | 78 | 1008.1 |
| 20260506023723 | 65 | 0 | 6.1 | 13.9 | 0.00 | 0.00 | 0.00 | 78 | 1008.1 |
| 20260506023658 | 65 | 0 | 5.2 | 13.9 | 0.00 | 0.00 | 0.00 | 78 | 1008.1 |
| 20260506023558 | 65 | 35 | 6.1 | 13.9 | 0.00 | 0.00 | 0.00 | 78 | 1008.1 |
| 20260506023456 | 65 | 13 | 7.0 | 13.9 | 0.00 | 0.00 | 0.00 | 78 | 1008.1 |
| 20260506023356 | 65 | 353 | 7.8 | 13.9 | 0.00 | 0.00 | 0.00 | 77 | 1008.1 |
| 20260506023256 | 65 | 20 | 10.4 | 13.9 | 0.00 | 0.00 | 0.00 | 77 | 1007.9 |
| 20260506023225 | 65 | 351 | 10.4 | 13.9 | 0.00 | 0.00 | 0.00 | 77 | 1007.9 |
| 20260506023157 | 66 | 0 | 10.4 | 13.9 | 0.00 | 0.00 | 0.00 | 77 | 1007.9 |
| 20260506023045 | 66 | 357 | 8.7 | 13.0 | 0.00 | 0.00 | 0.00 | 77 | 1007.7 |
| 20260506022944 | 66 | 354 | 7.8 | 12.2 | 0.00 | 0.00 | 0.00 | 77 | 1007.7 |
| 20260506022842 | 66 | 0 | 7.0 | 11.3 | 0.00 | 0.00 | 0.00 | 77 | 1007.5 |
| 20260506022739 | 66 | 32 | 7.8 | 11.3 | 0.00 | 0.00 | 0.00 | 77 | 1007.5 |
| 20260506022718 | 66 | 0 | 7.8 | 11.3 | 0.00 | 0.00 | 0.00 | 77 | 1007.5 |
| 20260506022641 | 67 | 0 | 7.8 | 11.3 | 0.00 | 0.00 | 0.00 | 77 | 1007.5 |
| 20260506022537 | 67 | 0 | 7.0 | 10.4 | 0.00 | 0.00 | 0.00 | 77 | 1007.6 |
| 20260506022436 | 67 | 357 | 6.1 | 10.4 | 0.00 | 0.00 | 0.00 | 77 | 1007.6 |
| 20260506022334 | 67 | 344 | 7.0 | 10.4 | 0.00 | 0.00 | 0.00 | 77 | 1007.6 |
| 20260506022232 | 67 | 351 | 5.2 | 9.6 | 0.00 | 0.00 | 0.00 | 78 | 1007.6 |
| 20260506022219 | 67 | 0 | 5.2 | 10.4 | 0.00 | 0.00 | 0.00 | 78 | 1007.6 |
| 20260506022134 | 67 | 302 | 5.2 | 10.4 | 0.00 | 0.00 | 0.00 | 78 | 1007.6 |
| 20260506022032 | 67 | 1 | 5.2 | 10.4 | 0.00 | 0.00 | 0.00 | 77 | 1007.5 |
| 20260506021935 | 67 | 348 | 5.2 | 12.2 | 0.00 | 0.00 | 0.00 | 77 | 1007.6 |
| 20260506021832 | 67 | 0 | 6.1 | 12.2 | 0.00 | 0.00 | 0.00 | 77 | 1007.5 |
| 20260506021732 | 67 | 0 | 5.2 | 12.2 | 0.00 | 0.00 | 0.00 | 78 | 1007.5 |
| 20260506021719 | 67 | 13 | 4.3 | 12.2 | 0.00 | 0.00 | 0.00 | 78 | 1007.5 |
| 20260506021631 | 67 | 0 | 4.3 | 12.2 | 0.00 | 0.00 | 0.00 | 78 | 1007.5 |
| 20260506021531 | 67 | 357 | 5.2 | 12.2 | 0.00 | 0.00 | 0.00 | 78 | 1007.5 |
| 20260506021433 | 67 | 337 | 5.2 | 12.2 | 0.00 | 0.00 | 0.00 | 78 | 1007.5 |
| 20260506021332 | 67 | 8 | 7.0 | 12.2 | 0.00 | 0.00 | 0.00 | 77 | 1007.4 |
| 20260506021233 | 67 | 0 | 7.8 | 12.2 | 0.00 | 0.00 | 0.00 | 77 | 1007.3 |
| 20260506021213 | 67 | 0 | 7.0 | 12.2 | 0.00 | 0.00 | 0.00 | 77 | 1007.3 |
| 20260506021131 | 68 | 0 | 7.8 | 12.2 | 0.00 | 0.00 | 0.00 | 77 | 1007.3 |
| 20260506021031 | 68 | 357 | 7.0 | 12.2 | 0.00 | 0.00 | 0.00 | 78 | 1007.3 |
| 20260506020930 | 68 | 14 | 4.3 | 11.3 | 0.00 | 0.00 | 0.00 | 78 | 1007.3 |
| 20260506020831 | 68 | 0 | 4.3 | 11.3 | 0.00 | 0.00 | 0.00 | 78 | 1007.3 |
| 20260506020732 | 68 | 351 | 4.3 | 11.3 | 0.00 | 0.00 | 0.00 | 78 | 1007.3 |
| 20260506020711 | 68 | 10 | 4.3 | 11.3 | 0.00 | 0.00 | 0.00 | 78 | 1007.3 |
| 20260506020633 | 68 | 0 | 4.3 | 11.3 | 0.00 | 0.00 | 0.00 | 78 | 1007.3 |
| 20260506020609 | 68 | 0 | 6.1 | 10.4 | 0.00 | 0.00 | 0.00 | 77 | 1007.2 |
| 20260506020552 | 68 | 21 | 5.2 | 11.3 | 0.00 | 0.00 | 0.00 | 77 | 1007.3 |
| 20260506020518 | 68 | 1 | 7.8 | 11.3 | 0.00 | 0.00 | 0.00 | 77 | 1007.3 |
| 20260506020448 | 68 | 350 | 7.8 | 11.3 | 0.00 | 0.00 | 0.00 | 77 | 1007.3 |
| 20260506020418 | 68 | 1 | 6.1 | 10.4 | 0.00 | 0.00 | 0.00 | 77 | 1007.2 |
| 20260506020111 | 68 | 4 | 6.1 | 10.4 | 0.00 | 0.00 | 0.00 | 77 | 1007.2 |
| 20260506020010 | 68 | 0 | 6.1 | 10.4 | 0.00 | 0.00 | 0.00 | 77 | 1007.2 |
| 20260506015908 | 68 | 3 | 7.0 | 10.4 | 0.00 | 0.00 | 0.00 | 77 | 1007.3 |
| 20260506015806 | 68 | 11 | 7.0 | 10.4 | 0.00 | 0.00 | 0.00 | 77 | 1007.3 |
| 20260506015706 | 68 | 334 | 4.3 | 9.6 | 0.00 | 0.00 | 0.00 | 77 | 1007.4 |
| 20260506015606 | 68 | 0 | 4.3 | 9.6 | 0.00 | 0.00 | 0.00 | 77 | 1007.4 |
| 20260506015503 | 68 | 358 | 5.2 | 9.6 | 0.00 | 0.00 | 0.00 | 77 | 1007.3 |
| 20260506015405 | 68 | 0 | 5.2 | 9.6 | 0.00 | 0.00 | 0.00 | 77 | 1007.3 |
| 20260506015301 | 68 | 0 | 6.1 | 9.6 | 0.00 | 0.00 | 0.00 | 77 | 1007.2 |
| 20260506015204 | 68 | 0 | 6.1 | 9.6 | 0.00 | 0.00 | 0.00 | 77 | 1007.1 |
| 20260506015157 | 68 | 354 | 6.1 | 9.6 | 0.00 | 0.00 | 0.00 | 77 | 1007.1 |
| 20260506015056 | 68 | 0 | 6.1 | 11.3 | 0.00 | 0.00 | 0.00 | 77 | 1007.0 |
| 20260506014956 | 68 | 0 | 6.1 | 11.3 | 0.00 | 0.00 | 0.00 | 77 | 1006.9 |
| 20260506014856 | 68 | 0 | 5.2 | 11.3 | 0.00 | 0.00 | 0.00 | 77 | 1006.9 |
| 20260506014754 | 68 | 1 | 5.2 | 11.3 | 0.00 | 0.00 | 0.00 | 77 | 1006.9 |
| 20260506014704 | 68 | 0 | 5.2 | 11.3 | 0.00 | 0.00 | 0.00 | 77 | 1006.9 |
| 20260506014651 | 68 | 0 | 5.2 | 11.3 | 0.00 | 0.00 | 0.00 | 77 | 1006.8 |
| 20260506014549 | 68 | 4 | 6.1 | 11.3 | 0.00 | 0.00 | 0.00 | 77 | 1006.8 |
| 20260506014448 | 68 | 357 | 5.2 | 11.3 | 0.00 | 0.00 | 0.00 | 76 | 1006.7 |
| 20260506014345 | 68 | 24 | 6.1 | 11.3 | 0.00 | 0.00 | 0.00 | 76 | 1006.7 |
| 20260506014246 | 68 | 0 | 7.8 | 11.3 | 0.00 | 0.00 | 0.00 | 76 | 1006.6 |
| 20260506014204 | 69 | 0 | 7.8 | 11.3 | 0.00 | 0.00 | 0.00 | 76 | 1006.6 |
| 20260506014143 | 69 | 7 | 7.0 | 11.3 | 0.00 | 0.00 | 0.00 | 76 | 1006.7 |
| 20260506014033 | 69 | 17 | 6.1 | 11.3 | 0.00 | 0.00 | 0.00 | 76 | 1006.7 |
| 20260506013934 | 69 | 350 | 7.0 | 11.3 | 0.00 | 0.00 | 0.00 | 76 | 1006.7 |
| 20260506013832 | 69 | 3 | 7.0 | 11.3 | 0.00 | 0.00 | 0.00 | 76 | 1006.7 |
| 20260506013734 | 69 | 347 | 7.0 | 11.3 | 0.00 | 0.00 | 0.00 | 76 | 1006.6 |
| 20260506013659 | 69 | 0 | 7.0 | 11.3 | 0.00 | 0.00 | 0.00 | 76 | 1006.6 |
| 20260506013634 | 69 | 16 | 7.0 | 11.3 | 0.00 | 0.00 | 0.00 | 76 | 1006.7 |
| 20260506013533 | 69 | 330 | 7.8 | 11.3 | 0.00 | 0.00 | 0.00 | 76 | 1006.7 |
| 20260506013433 | 69 | 13 | 7.0 | 11.3 | 0.00 | 0.00 | 0.00 | 76 | 1006.8 |
| 20260506013333 | 69 | 341 | 7.0 | 11.3 | 0.00 | 0.00 | 0.00 | 76 | 1006.9 |
| 20260506013234 | 69 | 3 | 7.0 | 11.3 | 0.00 | 0.00 | 0.00 | 76 | 1007.0 |
| 20260506013157 | 69 | 343 | 7.8 | 11.3 | 0.00 | 0.00 | 0.00 | 75 | 1007.0 |
| 20260506013134 | 69 | 0 | 7.8 | 11.3 | 0.00 | 0.00 | 0.00 | 75 | 1007.0 |
| 20260506013033 | 69 | 350 | 6.1 | 11.3 | 0.00 | 0.00 | 0.00 | 75 | 1007.1 |
| 20260506012933 | 69 | 317 | 5.2 | 9.6 | 0.00 | 0.00 | 0.00 | 75 | 1007.0 |
| 20260506012834 | 70 | 13 | 5.2 | 11.3 | 0.00 | 0.00 | 0.00 | 76 | 1007.0 |
| 20260506012734 | 70 | 0 | 4.3 | 11.3 | 0.00 | 0.00 | 0.00 | 76 | 1006.9 |
| 20260506012655 | 70 | 0 | 4.3 | 11.3 | 0.00 | 0.00 | 0.00 | 76 | 1006.9 |
| 20260506012633 | 70 | 32 | 4.3 | 11.3 | 0.00 | 0.00 | 0.00 | 76 | 1006.8 |
| 20260506012534 | 70 | 35 | 6.1 | 11.3 | 0.00 | 0.00 | 0.00 | 76 | 1006.7 |
| 20260506012432 | 70 | 11 | 6.1 | 11.3 | 0.00 | 0.00 | 0.00 | 76 | 1006.6 |
| 20260506012333 | 70 | 0 | 3.5 | 11.3 | 0.00 | 0.00 | 0.00 | 76 | 1006.6 |
| 20260506012234 | 70 | 1 | 3.5 | 11.3 | 0.00 | 0.00 | 0.00 | 76 | 1006.5 |
| 20260506012155 | 70 | 3 | 4.3 | 12.2 | 0.00 | 0.00 | 0.00 | 76 | 1006.5 |
| 20260506012134 | 70 | 7 | 4.3 | 12.2 | 0.00 | 0.00 | 0.00 | 76 | 1006.4 |
| 20260506012033 | 70 | 24 | 7.0 | 12.2 | 0.00 | 0.00 | 0.00 | 76 | 1006.4 |
| 20260506011933 | 70 | 0 | 7.8 | 12.2 | 0.00 | 0.00 | 0.00 | 75 | 1006.4 |
| 20260506011834 | 70 | 1 | 7.8 | 12.2 | 0.00 | 0.00 | 0.00 | 75 | 1006.4 |
| 20260506011733 | 70 | 0 | 7.0 | 12.2 | 0.00 | 0.00 | 0.00 | 75 | 1006.4 |
| 20260506011653 | 70 | 0 | 6.1 | 12.2 | 0.00 | 0.00 | 0.00 | 75 | 1006.4 |
| 20260506011633 | 70 | 338 | 5.2 | 12.2 | 0.00 | 0.00 | 0.00 | 75 | 1006.3 |
| 20260506011534 | 71 | 0 | 5.2 | 12.2 | 0.00 | 0.00 | 0.00 | 75 | 1006.2 |
| 20260506011434 | 71 | 0 | 6.1 | 12.2 | 0.00 | 0.00 | 0.00 | 75 | 1006.2 |
| 20260506011333 | 71 | 353 | 7.8 | 12.2 | 0.00 | 0.00 | 0.00 | 75 | 1006.1 |
| 20260506011234 | 71 | 331 | 8.7 | 12.2 | 0.00 | 0.00 | 0.00 | 75 | 1006.1 |
| 20260506011154 | 71 | 0 | 7.8 | 11.3 | 0.00 | 0.00 | 0.00 | 75 | 1006.1 |
| 20260506011134 | 71 | 347 | 7.0 | 11.3 | 0.00 | 0.00 | 0.00 | 74 | 1006.1 |
| 20260506011032 | 71 | 0 | 6.1 | 11.3 | 0.00 | 0.00 | 0.00 | 74 | 1006.1 |
| 20260506010933 | 71 | 0 | 6.1 | 11.3 | 0.00 | 0.00 | 0.00 | 74 | 1006.2 |
| 20260506010833 | 71 | 3 | 6.1 | 11.3 | 0.00 | 0.00 | 0.00 | 74 | 1006.2 |
| 20260506010733 | 72 | 345 | 5.2 | 11.3 | 0.00 | 0.00 | 0.00 | 74 | 1006.4 |
| 20260506010654 | 72 | 0 | 5.2 | 8.7 | 0.00 | 0.00 | 0.00 | 74 | 1006.4 |
| 20260506010635 | 72 | 355 | 4.3 | 8.7 | 0.00 | 0.00 | 0.00 | 74 | 1006.6 |
| 20260506010534 | 72 | 7 | 2.6 | 7.8 | 0.00 | 0.00 | 0.00 | 74 | 1006.6 |
| 20260506010432 | 72 | 0 | 3.5 | 7.8 | 0.00 | 0.00 | 0.00 | 74 | 1006.7 |
| 20260506010334 | 72 | 309 | 3.5 | 7.8 | 0.00 | 0.00 | 0.00 | 74 | 1006.8 |
| 20260506010233 | 72 | 307 | 1.7 | 6.1 | 0.00 | 0.00 | 0.00 | 73 | 1006.7 |
| 20260506010154 | 72 | 316 | 3.5 | 7.8 | 0.00 | 0.00 | 0.00 | 73 | 1006.7 |
| 20260506010134 | 72 | 317 | 3.5 | 7.8 | 0.00 | 0.00 | 0.00 | 73 | 1006.6 |
| 20260506010031 | 72 | 7 | 3.5 | 8.7 | 0.00 | 0.00 | 0.00 | 73 | 1006.3 |
| 20260506005929 | 72 | 0 | 3.5 | 8.7 | 0.00 | 0.00 | 0.00 | 73 | 1006.0 |
| 20260506005828 | 72 | 0 | 5.2 | 8.7 | 0.00 | 0.00 | 0.00 | 73 | 1005.7 |
| 20260506005727 | 72 | 0 | 4.3 | 8.7 | 0.00 | 0.00 | 0.00 | 73 | 1005.5 |
| 20260506005654 | 72 | 6 | 4.3 | 8.7 | 0.00 | 0.00 | 0.00 | 73 | 1005.5 |
| 20260506005625 | 72 | 0 | 4.3 | 8.7 | 0.00 | 0.00 | 0.00 | 73 | 1005.5 |
| 20260506005518 | 72 | 25 | 3.5 | 8.7 | 0.00 | 0.00 | 0.00 | 73 | 1005.7 |
| 20260506005418 | 72 | 13 | 3.5 | 8.7 | 0.00 | 0.00 | 0.00 | 73 | 1005.8 |
| 20260506005315 | 72 | 10 | 5.2 | 8.7 | 0.00 | 0.00 | 0.00 | 72 | 1006.0 |
| 20260506005213 | 72 | 358 | 6.1 | 8.7 | 0.00 | 0.00 | 0.00 | 73 | 1006.0 |
| 20260506005154 | 72 | 0 | 6.1 | 8.7 | 0.00 | 0.00 | 0.00 | 73 | 1006.0 |
| 20260506005112 | 72 | 0 | 5.2 | 8.7 | 0.00 | 0.00 | 0.00 | 72 | 1005.9 |
| 20260506005010 | 72 | 350 | 4.3 | 6.1 | 0.00 | 0.00 | 0.00 | 72 | 1006.1 |
| 20260506004908 | 72 | 345 | 3.5 | 6.1 | 0.00 | 0.00 | 0.00 | 72 | 1006.0 |
| 20260506004805 | 72 | 351 | 2.6 | 6.1 | 0.00 | 0.00 | 0.00 | 72 | 1006.2 |
| 20260506004705 | 72 | 334 | 3.5 | 7.8 | 0.00 | 0.00 | 0.00 | 72 | 1006.2 |
| 20260506004651 | 73 | 6 | 3.5 | 7.8 | 0.00 | 0.00 | 0.00 | 72 | 1006.2 |
| 20260506004606 | 73 | 303 | 3.5 | 7.8 | 0.00 | 0.00 | 0.00 | 72 | 1006.2 |
| 20260506004506 | 73 | 0 | 4.3 | 7.8 | 0.00 | 0.00 | 0.00 | 72 | 1006.2 |
| 20260506004404 | 73 | 0 | 3.5 | 7.8 | 0.00 | 0.00 | 0.00 | 72 | 1006.1 |
| 20260506004304 | 73 | 0 | 1.7 | 7.8 | 0.00 | 0.00 | 0.00 | 72 | 1006.0 |
| 20260506004204 | 73 | 3 | 1.7 | 7.8 | 0.00 | 0.00 | 0.00 | 72 | 1005.9 |
| 20260506004151 | 73 | 350 | 1.7 | 7.8 | 0.00 | 0.00 | 0.00 | 72 | 1005.9 |
| 20260506004105 | 73 | 11 | 2.6 | 7.8 | 0.00 | 0.00 | 0.00 | 72 | 1005.8 |
| 20260506004054 | 73 | 13 | 4.3 | 6.1 | 0.00 | 0.00 | 0.00 | 72 | 1005.9 |
| 20260506004032 | 73 | 10 | 3.5 | 7.8 | 0.00 | 0.00 | 0.00 | 72 | 1005.7 |
| 20260506004001 | 73 | 16 | 5.2 | 7.8 | 0.00 | 0.00 | 0.00 | 72 | 1005.8 |
| 20260506003936 | 73 | 1 | 5.2 | 7.8 | 0.00 | 0.00 | 0.00 | 72 | 1005.8 |
| 20260506003907 | 73 | 21 | 4.3 | 6.1 | 0.00 | 0.00 | 0.00 | 72 | 1005.9 |
| 20260506003604 | 73 | 27 | 3.5 | 6.1 | 0.00 | 0.00 | 0.00 | 72 | 1005.9 |
| 20260506003504 | 73 | 0 | 3.5 | 5.2 | 0.00 | 0.00 | 0.00 | 72 | 1005.9 |
| 20260506003402 | 73 | 17 | 2.6 | 5.2 | 0.00 | 0.00 | 0.00 | 71 | 1006.0 |
| 20260506003301 | 73 | 353 | 2.6 | 6.1 | 0.00 | 0.00 | 0.00 | 71 | 1006.0 |
| 20260506003151 | 73 | 351 | 3.5 | 6.1 | 0.00 | 0.00 | 0.00 | 71 | 1006.0 |
| 20260506003054 | 73 | 10 | 3.5 | 6.1 | 0.00 | 0.00 | 0.00 | 71 | 1006.0 |
| 20260506002954 | 73 | 0 | 2.6 | 6.1 | 0.00 | 0.00 | 0.00 | 71 | 1005.9 |
| 20260506002853 | 73 | 0 | 2.6 | 6.1 | 0.00 | 0.00 | 0.00 | 71 | 1005.9 |
| 20260506002755 | 73 | 0 | 3.5 | 8.7 | 0.00 | 0.00 | 0.00 | 71 | 1005.9 |
| 20260506002654 | 73 | 13 | 3.5 | 9.6 | 0.00 | 0.00 | 0.00 | 71 | 1005.9 |
| 20260506002602 | 73 | 345 | 4.3 | 12.2 | 0.00 | 0.00 | 0.00 | 70 | 1005.7 |
| 20260506002555 | 73 | 0 | 3.5 | 9.6 | 0.00 | 0.00 | 0.00 | 71 | 1005.9 |
| 20260506002521 | 73 | 0 | 3.5 | 10.4 | 0.00 | 0.00 | 0.00 | 70 | 1005.7 |
| 20260506002451 | 73 | 0 | 2.6 | 12.2 | 0.00 | 0.00 | 0.00 | 70 | 1005.7 |
| 20260506002423 | 73 | 321 | 3.5 | 12.2 | 0.00 | 0.00 | 0.00 | 70 | 1005.7 |
| 20260506002144 | 73 | 350 | 4.3 | 12.2 | 0.00 | 0.00 | 0.00 | 70 | 1005.7 |
| 20260506002040 | 73 | 357 | 4.3 | 12.2 | 0.00 | 0.00 | 0.00 | 70 | 1005.7 |
| 20260506001940 | 73 | 355 | 5.2 | 12.2 | 0.00 | 0.00 | 0.00 | 70 | 1005.8 |
| 20260506001839 | 73 | 0 | 6.1 | 12.2 | 0.00 | 0.00 | 0.00 | 70 | 1005.7 |
| 20260506001739 | 73 | 0 | 6.1 | 12.2 | 0.00 | 0.00 | 0.00 | 70 | 1005.7 |
| 20260506001653 | 73 | 326 | 6.1 | 12.2 | 0.00 | 0.00 | 0.00 | 70 | 1005.7 |
| 20260506001635 | 73 | 0 | 7.0 | 12.2 | 0.00 | 0.00 | 0.00 | 69 | 1005.7 |
| 20260506001604 | 73 | 0 | 4.3 | 12.2 | 0.00 | 0.00 | 0.00 | 69 | 1005.4 |
| 20260506001545 | 73 | 351 | 7.8 | 12.2 | 0.00 | 0.00 | 0.00 | 69 | 1005.6 |
| 20260506001516 | 73 | 355 | 6.1 | 12.2 | 0.00 | 0.00 | 0.00 | 69 | 1005.6 |
| 20260506001447 | 73 | 24 | 4.3 | 12.2 | 0.00 | 0.00 | 0.00 | 69 | 1005.5 |
| 20260506001416 | 73 | 323 | 4.3 | 12.2 | 0.00 | 0.00 | 0.00 | 69 | 1005.4 |
| 20260506001128 | 73 | 324 | 5.2 | 12.2 | 0.00 | 0.00 | 0.00 | 69 | 1005.4 |
| 20260506001026 | 73 | 347 | 7.0 | 12.2 | 0.00 | 0.00 | 0.00 | 69 | 1005.3 |
| 20260506000926 | 73 | 355 | 7.8 | 12.2 | 0.00 | 0.00 | 0.00 | 69 | 1005.4 |
| 20260506000823 | 74 | 321 | 7.8 | 12.2 | 0.00 | 0.00 | 0.00 | 69 | 1005.4 |
| 20260506000723 | 74 | 343 | 7.0 | 12.2 | 0.00 | 0.00 | 0.00 | 70 | 1005.5 |
| 20260506000652 | 74 | 350 | 6.1 | 12.2 | 0.00 | 0.00 | 0.00 | 70 | 1005.5 |
| 20260506000621 | 74 | 6 | 7.0 | 12.2 | 0.00 | 0.00 | 0.00 | 70 | 1005.5 |
| 20260506000506 | 74 | 21 | 7.0 | 12.2 | 0.00 | 0.00 | 0.00 | 70 | 1005.5 |
| 20260506000405 | 74 | 350 | 5.2 | 12.2 | 0.00 | 0.00 | 0.00 | 70 | 1005.6 |
| 20260506000303 | 74 | 341 | 4.3 | 13.0 | 0.00 | 0.00 | 0.00 | 70 | 1005.6 |
| 20260506000206 | 74 | 307 | 5.2 | 13.0 | 0.00 | 0.00 | 0.00 | 70 | 1005.5 |
| 20260506000133 | 74 | 303 | 5.2 | 13.0 | 0.00 | 0.00 | 0.00 | 70 | 1005.4 |
| 20260506000105 | 74 | 324 | 5.2 | 13.0 | 0.00 | 0.00 | 0.00 | 70 | 1005.4 |
| 20260506000004 | 74 | 337 | 6.1 | 13.0 | 0.00 | 0.00 | 0.00 | 70 | 1005.4 |
| 20260505235901 | 74 | 355 | 7.8 | 13.0 | 0.00 | 0.00 | 0.00 | 70 | 1005.4 |
| 20260505235803 | 74 | 0 | 6.1 | 13.0 | 0.00 | 0.00 | 0.00 | 70 | 1005.4 |
| 20260505235702 | 74 | 0 | 6.1 | 13.0 | 0.00 | 0.00 | 0.00 | 69 | 1005.5 |
| 20260505235634 | 74 | 286 | 7.0 | 13.0 | 0.00 | 0.00 | 0.00 | 69 | 1005.5 |
| 20260505235604 | 74 | 353 | 7.8 | 13.0 | 0.00 | 0.00 | 0.00 | 69 | 1005.5 |
| 20260505235503 | 75 | 293 | 8.7 | 13.0 | 0.00 | 0.00 | 0.00 | 69 | 1005.6 |
| 20260505235403 | 75 | 6 | 7.8 | 13.0 | 0.00 | 0.00 | 0.00 | 69 | 1005.6 |
| 20260505235304 | 75 | 306 | 7.0 | 11.3 | 0.00 | 0.00 | 0.00 | 70 | 1005.5 |
| 20260505235203 | 75 | 329 | 7.0 | 11.3 | 0.00 | 0.00 | 0.00 | 70 | 1005.4 |
| 20260505235133 | 75 | 14 | 7.0 | 11.3 | 0.00 | 0.00 | 0.00 | 70 | 1005.3 |
| 20260505235104 | 75 | 324 | 6.1 | 11.3 | 0.00 | 0.00 | 0.00 | 70 | 1005.3 |
| 20260505235002 | 75 | 293 | 6.1 | 11.3 | 0.00 | 0.00 | 0.00 | 70 | 1005.3 |
| 20260505234903 | 75 | 357 | 7.0 | 11.3 | 0.00 | 0.00 | 0.00 | 70 | 1005.3 |
| 20260505234803 | 75 | 337 | 5.2 | 11.3 | 0.00 | 0.00 | 0.00 | 70 | 1005.4 |
| 20260505234704 | 75 | 350 | 4.3 | 9.6 | 0.00 | 0.00 | 0.00 | 69 | 1005.4 |
| 20260505234631 | 75 | 337 | 4.3 | 9.6 | 0.00 | 0.00 | 0.00 | 70 | 1005.5 |
| 20260505234602 | 76 | 353 | 4.3 | 7.8 | 0.00 | 0.00 | 0.00 | 70 | 1005.5 |
| 20260505234502 | 76 | 283 | 4.3 | 7.8 | 0.00 | 0.00 | 0.00 | 69 | 1005.5 |
| 20260505234403 | 76 | 324 | 3.5 | 8.7 | 0.00 | 0.00 | 0.00 | 69 | 1005.4 |
| 20260505234302 | 76 | 278 | 3.5 | 13.9 | 0.00 | 0.00 | 0.00 | 69 | 1005.3 |
| 20260505234202 | 76 | 313 | 4.3 | 13.9 | 0.00 | 0.00 | 0.00 | 67 | 1005.2 |
| 20260505234132 | 76 | 0 | 5.2 | 13.9 | 0.00 | 0.00 | 0.00 | 67 | 1005.1 |
| 20260505234103 | 77 | 275 | 7.0 | 13.9 | 0.00 | 0.00 | 0.00 | 67 | 1005.1 |
| 20260505234004 | 77 | 275 | 7.0 | 13.9 | 0.00 | 0.00 | 0.00 | 67 | 1005.1 |
| 20260505233845 | 77 | 275 | 7.0 | 13.9 | 0.00 | 0.00 | 0.00 | 67 | 1005.1 |
| 20260505233746 | 77 | 275 | 7.0 | 13.9 | 0.00 | 0.00 | 0.00 | 67 | 1005.1 |
| 20260505233644 | 77 | 275 | 7.0 | 13.9 | 0.00 | 0.00 | 0.00 | 67 | 1005.1 |
| 20260505233632 | 77 | 275 | 7.0 | 13.9 | 0.00 | 0.00 | 0.00 | 67 | 1005.2 |
| 20260505233547 | 77 | 275 | 7.0 | 13.9 | 0.00 | 0.00 | 0.00 | 67 | 1005.2 |
| 20260505233514 | 77 | 0 | 6.1 | 12.2 | 0.00 | 0.00 | 0.00 | 67 | 1004.9 |
| 20260505233502 | 77 | 358 | 7.0 | 13.9 | 0.00 | 0.00 | 0.00 | 67 | 1005.2 |
| 20260505233433 | 77 | 351 | 6.1 | 13.9 | 0.00 | 0.00 | 0.00 | 67 | 1005.0 |
| 20260505233402 | 77 | 276 | 7.0 | 12.2 | 0.00 | 0.00 | 0.00 | 67 | 1005.0 |
| 20260505233333 | 77 | 317 | 7.0 | 12.2 | 0.00 | 0.00 | 0.00 | 67 | 1004.9 |
| 20260505233034 | 78 | 298 | 5.2 | 13.0 | 0.00 | 0.00 | 0.00 | 67 | 1004.9 |
| 20260505232933 | 78 | 13 | 6.1 | 13.0 | 0.00 | 0.00 | 0.00 | 67 | 1004.9 |
| 20260505232835 | 78 | 0 | 6.1 | 13.0 | 0.00 | 0.00 | 0.00 | 66 | 1004.9 |
| 20260505232733 | 78 | 337 | 5.2 | 13.0 | 0.00 | 0.00 | 0.00 | 66 | 1005.1 |
| 20260505232633 | 78 | 333 | 6.1 | 13.0 | 0.00 | 0.00 | 0.00 | 66 | 1005.1 |
| 20260505232613 | 78 | 0 | 6.1 | 13.0 | 0.00 | 0.00 | 0.00 | 66 | 1005.1 |
| 20260505232534 | 78 | 338 | 5.2 | 13.0 | 0.00 | 0.00 | 0.00 | 66 | 1005.1 |
| 20260505232433 | 78 | 354 | 6.1 | 13.0 | 0.00 | 0.00 | 0.00 | 66 | 1005.0 |
| 20260505232333 | 78 | 1 | 7.8 | 13.0 | 0.00 | 0.00 | 0.00 | 65 | 1005.1 |
| 20260505232206 | 78 | 1 | 7.8 | 13.0 | 0.00 | 0.00 | 0.00 | 65 | 1005.0 |
| 20260505232107 | 79 | 309 | 7.8 | 13.0 | 0.00 | 0.00 | 0.00 | 66 | 1005.0 |
| 20260505232024 | 79 | 1 | 7.8 | 13.0 | 0.00 | 0.00 | 0.00 | 65 | 1005.2 |
| 20260505232014 | 79 | 1 | 6.1 | 13.0 | 0.00 | 0.00 | 0.00 | 65 | 1005.2 |
| 20260505231943 | 79 | 257 | 7.0 | 13.0 | 0.00 | 0.00 | 0.00 | 65 | 1005.2 |
| 20260505231912 | 79 | 28 | 7.0 | 13.0 | 0.00 | 0.00 | 0.00 | 65 | 1005.2 |
| 20260505231842 | 79 | 0 | 7.0 | 13.0 | 0.00 | 0.00 | 0.00 | 65 | 1005.1 |
| 20260505231814 | 79 | 1 | 7.8 | 13.0 | 0.00 | 0.00 | 0.00 | 65 | 1005.2 |
| 20260505231507 | 79 | 333 | 7.8 | 12.2 | 0.00 | 0.00 | 0.00 | 64 | 1005.1 |
| 20260505231404 | 80 | 306 | 7.0 | 11.3 | 0.00 | 0.00 | 0.00 | 64 | 1005.1 |
| 20260505231302 | 80 | 30 | 6.1 | 11.3 | 0.00 | 0.00 | 0.00 | 64 | 1005.1 |
| 20260505231202 | 80 | 354 | 6.1 | 11.3 | 0.00 | 0.00 | 0.00 | 64 | 1005.0 |
| 20260505231106 | 80 | 1 | 5.2 | 10.4 | 0.00 | 0.00 | 0.00 | 63 | 1005.0 |
| 20260505231101 | 80 | 354 | 5.2 | 10.4 | 0.00 | 0.00 | 0.00 | 63 | 1005.0 |
| 20260505230959 | 80 | 6 | 4.3 | 10.4 | 0.00 | 0.00 | 0.00 | 63 | 1004.9 |
| 20260505230858 | 80 | 336 | 3.5 | 10.4 | 0.00 | 0.00 | 0.00 | 63 | 1004.9 |
| 20260505230757 | 80 | 320 | 3.5 | 10.4 | 0.00 | 0.00 | 0.00 | 63 | 1004.8 |
| 20260505230655 | 80 | 334 | 3.5 | 10.4 | 0.00 | 0.00 | 0.00 | 62 | 1004.9 |
| 20260505230603 | 80 | 313 | 4.3 | 10.4 | 0.00 | 0.00 | 0.00 | 62 | 1004.8 |
| 20260505230553 | 80 | 358 | 4.3 | 10.4 | 0.00 | 0.00 | 0.00 | 62 | 1004.8 |
| 20260505230455 | 81 | 355 | 5.2 | 10.4 | 0.00 | 0.00 | 0.00 | 62 | 1004.8 |
| 20260505230349 | 81 | 303 | 4.3 | 10.4 | 0.00 | 0.00 | 0.00 | 62 | 1004.9 |
| 20260505230248 | 81 | 220 | 4.3 | 10.4 | 0.00 | 0.00 | 0.00 | 62 | 1004.8 |
| 20260505230147 | 81 | 0 | 4.3 | 13.0 | 0.00 | 0.00 | 0.00 | 62 | 1004.9 |
| 20260505230123 | 82 | 0 | 6.1 | 13.0 | 0.00 | 0.00 | 0.00 | 61 | 1004.6 |
| 20260505230109 | 81 | 307 | 5.2 | 13.0 | 0.00 | 0.00 | 0.00 | 62 | 1004.8 |
| 20260505230059 | 81 | 288 | 5.2 | 13.0 | 0.00 | 0.00 | 0.00 | 62 | 1004.8 |
| 20260505230027 | 81 | 353 | 5.2 | 13.0 | 0.00 | 0.00 | 0.00 | 62 | 1004.8 |
| 20260505225957 | 81 | 298 | 4.3 | 13.0 | 0.00 | 0.00 | 0.00 | 62 | 1004.8 |
| 20260505225929 | 82 | 357 | 4.3 | 13.0 | 0.00 | 0.00 | 0.00 | 62 | 1004.7 |
| 20260505225859 | 82 | 3 | 5.2 | 13.0 | 0.00 | 0.00 | 0.00 | 61 | 1004.6 |
| 20260505225541 | 82 | 0 | 6.1 | 13.0 | 0.00 | 0.00 | 0.00 | 61 | 1004.6 |
| 20260505225438 | 82 | 6 | 6.1 | 13.0 | 0.00 | 0.00 | 0.00 | 61 | 1004.5 |
| 20260505225335 | 82 | 0 | 6.1 | 13.0 | 0.00 | 0.00 | 0.00 | 60 | 1004.4 |
| 20260505225234 | 82 | 0 | 5.2 | 13.0 | 0.00 | 0.00 | 0.00 | 60 | 1004.5 |
| 20260505225135 | 83 | 0 | 4.3 | 10.4 | 0.00 | 0.00 | 0.00 | 60 | 1004.5 |
| 20260505225103 | 83 | 348 | 4.3 | 10.4 | 0.00 | 0.00 | 0.00 | 59 | 1004.5 |
| 20260505225035 | 83 | 333 | 5.2 | 10.4 | 0.00 | 0.00 | 0.00 | 59 | 1004.4 |
| 20260505224933 | 83 | 3 | 4.3 | 10.4 | 0.00 | 0.00 | 0.00 | 59 | 1004.5 |
| 20260505224858 | 84 | 0 | 1.7 | 9.6 | 0.00 | 0.00 | 0.00 | 56 | 1004.6 |
| 20260505224844 | 83 | 37 | 3.5 | 7.8 | 0.00 | 0.00 | 0.00 | 59 | 1004.5 |
| 20260505224815 | 83 | 250 | 2.6 | 7.8 | 0.00 | 0.00 | 0.00 | 58 | 1004.6 |
| 20260505224746 | 83 | 278 | 2.6 | 7.8 | 0.00 | 0.00 | 0.00 | 58 | 1004.6 |
| 20260505224729 | 83 | 324 | 2.6 | 9.6 | 0.00 | 0.00 | 0.00 | 58 | 1004.6 |
| 20260505224715 | 84 | 358 | 2.6 | 9.6 | 0.00 | 0.00 | 0.00 | 58 | 1004.6 |
| 20260505224436 | 84 | 321 | 3.5 | 9.6 | 0.00 | 0.00 | 0.00 | 57 | 1004.6 |
| 20260505224416 | 84 | 321 | 3.5 | 9.6 | 0.00 | 0.00 | 0.00 | 57 | 1004.6 |
| 20260505224348 | 84 | 354 | 2.6 | 9.6 | 0.00 | 0.00 | 0.00 | 57 | 1004.5 |
| 20260505224319 | 84 | 306 | 1.7 | 9.6 | 0.00 | 0.00 | 0.00 | 57 | 1004.6 |
| 20260505224021 | 84 | 300 | 2.6 | 9.6 | 0.00 | 0.00 | 0.00 | 56 | 1004.6 |
| 20260505224012 | 84 | 0 | 1.7 | 10.4 | 0.00 | 0.00 | 0.00 | 54 | 1004.4 |
| 20260505223948 | 84 | 0 | 3.5 | 9.6 | 0.00 | 0.00 | 0.00 | 55 | 1004.6 |
| 20260505223919 | 84 | 350 | 4.3 | 9.6 | 0.00 | 0.00 | 0.00 | 55 | 1004.6 |
| 20260505223848 | 84 | 350 | 3.5 | 9.6 | 0.00 | 0.00 | 0.00 | 55 | 1004.5 |
| 20260505223816 | 84 | 324 | 1.7 | 10.4 | 0.00 | 0.00 | 0.00 | 54 | 1004.4 |
| 20260505223508 | 84 | 278 | 3.5 | 10.4 | 0.00 | 0.00 | 0.00 | 53 | 1004.3 |
| 20260505223406 | 84 | 319 | 4.3 | 10.4 | 0.00 | 0.00 | 0.00 | 53 | 1004.3 |
| 20260505223305 | 84 | 317 | 3.5 | 10.4 | 0.00 | 0.00 | 0.00 | 52 | 1004.3 |
| 20260505223204 | 85 | 8 | 3.5 | 10.4 | 0.00 | 0.00 | 0.00 | 52 | 1004.3 |
| 20260505223105 | 85 | 305 | 3.5 | 10.4 | 0.00 | 0.00 | 0.00 | 52 | 1004.3 |
| 20260505223002 | 85 | 264 | 2.6 | 10.4 | 0.00 | 0.00 | 0.00 | 52 | 1004.2 |
| 20260505222902 | 85 | 0 | 3.5 | 10.4 | 0.00 | 0.00 | 0.00 | 51 | 1004.2 |
| 20260505222758 | 85 | 289 | 3.5 | 10.4 | 0.00 | 0.00 | 0.00 | 50 | 1004.2 |
| 20260505222657 | 85 | 338 | 3.5 | 7.8 | 0.00 | 0.00 | 0.00 | 51 | 1004.2 |
| 20260505222604 | 85 | 317 | 2.6 | 7.8 | 0.00 | 0.00 | 0.00 | 51 | 1004.2 |
| 20260505222554 | 85 | 307 | 2.6 | 7.8 | 0.00 | 0.00 | 0.00 | 51 | 1004.2 |
| 20260505222453 | 85 | 314 | 3.5 | 7.8 | 0.00 | 0.00 | 0.00 | 50 | 1004.2 |
| 20260505222353 | 85 | 321 | 4.3 | 7.8 | 0.00 | 0.00 | 0.00 | 50 | 1004.2 |
| 20260505222251 | 85 | 357 | 4.3 | 7.8 | 0.00 | 0.00 | 0.00 | 50 | 1004.1 |
| 20260505222150 | 85 | 1 | 3.5 | 7.8 | 0.00 | 0.00 | 0.00 | 50 | 1004.2 |
| 20260505222104 | 85 | 319 | 3.5 | 7.8 | 0.00 | 0.00 | 0.00 | 50 | 1004.1 |
| 20260505222047 | 85 | 288 | 3.5 | 7.8 | 0.00 | 0.00 | 0.00 | 50 | 1004.1 |
| 20260505221944 | 86 | 317 | 4.3 | 8.7 | 0.00 | 0.00 | 0.00 | 50 | 1004.2 |
| 20260505221844 | 86 | 285 | 3.5 | 8.7 | 0.00 | 0.00 | 0.00 | 50 | 1004.2 |
| 20260505221745 | 86 | 306 | 3.5 | 8.7 | 0.00 | 0.00 | 0.00 | 50 | 1004.1 |
| 20260505221644 | 86 | 326 | 4.3 | 8.7 | 0.00 | 0.00 | 0.00 | 50 | 1004.2 |
| 20260505221604 | 86 | 13 | 3.5 | 8.7 | 0.00 | 0.00 | 0.00 | 50 | 1004.1 |
| 20260505221544 | 86 | 305 | 3.5 | 8.7 | 0.00 | 0.00 | 0.00 | 50 | 1004.1 |
| 20260505221444 | 85 | 338 | 3.5 | 8.7 | 0.00 | 0.00 | 0.00 | 49 | 1004.0 |
| 20260505221338 | 85 | 276 | 3.5 | 9.6 | 0.00 | 0.00 | 0.00 | 50 | 1004.0 |
| 20260505221233 | 85 | 0 | 3.5 | 9.6 | 0.00 | 0.00 | 0.00 | 50 | 1004.0 |
| 20260505221134 | 85 | 4 | 4.3 | 9.6 | 0.00 | 0.00 | 0.00 | 49 | 1003.8 |
| 20260505221104 | 85 | 331 | 3.5 | 9.6 | 0.00 | 0.00 | 0.00 | 48 | 1003.8 |
| 20260505221034 | 85 | 357 | 4.3 | 9.6 | 0.00 | 0.00 | 0.00 | 48 | 1004.0 |
| 20260505220933 | 85 | 293 | 2.6 | 9.6 | 0.00 | 0.00 | 0.00 | 50 | 1004.0 |
| 20260505220834 | 85 | 259 | 3.5 | 9.6 | 0.00 | 0.00 | 0.00 | 51 | 1004.0 |
| 20260505220734 | 85 | 0 | 4.3 | 9.6 | 0.00 | 0.00 | 0.00 | 51 | 1004.0 |
| 20260505220633 | 85 | 307 | 4.3 | 12.2 | 0.00 | 0.00 | 0.00 | 49 | 1004.0 |
| 20260505220601 | 85 | 307 | 5.2 | 12.2 | 0.00 | 0.00 | 0.00 | 49 | 1004.0 |
| 20260505220533 | 85 | 1 | 4.3 | 12.2 | 0.00 | 0.00 | 0.00 | 49 | 1003.8 |
| 20260505220433 | 85 | 353 | 5.2 | 12.2 | 0.00 | 0.00 | 0.00 | 50 | 1003.8 |
| 20260505220333 | 85 | 302 | 5.2 | 12.2 | 0.00 | 0.00 | 0.00 | 50 | 1004.0 |
| 20260505220233 | 85 | 313 | 4.3 | 12.2 | 0.00 | 0.00 | 0.00 | 51 | 1004.0 |
| 20260505220134 | 85 | 319 | 3.5 | 12.2 | 0.00 | 0.00 | 0.00 | 50 | 1004.0 |
| 20260505220033 | 84 | 0 | 4.3 | 12.2 | 0.00 | 0.00 | 0.00 | 50 | 1004.0 |
| 20260505215929 | 85 | 329 | 4.3 | 12.2 | 0.00 | 0.00 | 0.00 | 49 | 1004.0 |
| 20260505215828 | 85 | 324 | 4.3 | 12.2 | 0.00 | 0.00 | 0.00 | 49 | 1004.0 |
| 20260505215721 | 85 | 0 | 3.5 | 11.3 | 0.00 | 0.00 | 0.00 | 50 | 1004.0 |
| 20260505215620 | 85 | 319 | 3.5 | 8.7 | 0.00 | 0.00 | 0.00 | 50 | 1003.8 |
| 20260505215601 | 85 | 1 | 3.5 | 8.7 | 0.00 | 0.00 | 0.00 | 50 | 1003.8 |
| 20260505215519 | 85 | 8 | 3.5 | 8.7 | 0.00 | 0.00 | 0.00 | 50 | 1004.0 |
| 20260505215417 | 85 | 333 | 3.5 | 8.7 | 0.00 | 0.00 | 0.00 | 50 | 1004.0 |
| 20260505215317 | 85 | 307 | 3.5 | 8.7 | 0.00 | 0.00 | 0.00 | 50 | 1004.0 |
| 20260505215214 | 85 | 272 | 4.3 | 9.6 | 0.00 | 0.00 | 0.00 | 49 | 1004.1 |
| 20260505215112 | 86 | 75 | 4.3 | 9.6 | 0.00 | 0.00 | 0.00 | 49 | 1004.1 |
| 20260505215100 | 86 | 295 | 4.3 | 9.6 | 0.00 | 0.00 | 0.00 | 49 | 1004.1 |
| 20260505215010 | 86 | 319 | 5.2 | 9.6 | 0.00 | 0.00 | 0.00 | 49 | 1004.1 |
| 20260505214911 | 86 | 278 | 4.3 | 9.6 | 0.00 | 0.00 | 0.00 | 50 | 1004.1 |
| 20260505214809 | 87 | 3 | 3.5 | 9.6 | 0.00 | 0.00 | 0.00 | 50 | 1004.0 |
| 20260505214708 | 87 | 348 | 3.5 | 9.6 | 0.00 | 0.00 | 0.00 | 50 | 1004.1 |
| 20260505214607 | 87 | 316 | 5.2 | 9.6 | 0.00 | 0.00 | 0.00 | 52 | 1004.0 |
| 20260505214602 | 87 | 354 | 5.2 | 9.6 | 0.00 | 0.00 | 0.00 | 52 | 1004.0 |
| 20260505214505 | 88 | 324 | 5.2 | 9.6 | 0.00 | 0.00 | 0.00 | 55 | 1004.1 |
| 20260505214404 | 88 | 248 | 4.3 | 9.6 | 0.00 | 0.00 | 0.00 | 55 | 1004.0 |
| 20260505214305 | 88 | 183 | 4.3 | 9.6 | 0.00 | 0.00 | 0.00 | 55 | 1004.0 |
| 20260505214202 | 88 | 238 | 5.2 | 12.2 | 0.00 | 0.00 | 0.00 | 54 | 1004.0 |
| 20260505214106 | 89 | 221 | 5.2 | 12.2 | 0.00 | 0.00 | 0.00 | 53 | 1004.0 |
| 20260505214100 | 89 | 231 | 5.2 | 12.2 | 0.00 | 0.00 | 0.00 | 53 | 1004.0 |
| 20260505214004 | 89 | 241 | 5.2 | 12.2 | 0.00 | 0.00 | 0.00 | 53 | 1004.0 |
| 20260505213904 | 89 | 298 | 4.3 | 12.2 | 0.00 | 0.00 | 0.00 | 54 | 1004.1 |
| 20260505213802 | 89 | 266 | 4.3 | 12.2 | 0.00 | 0.00 | 0.00 | 56 | 1004.0 |
| 20260505213703 | 88 | 230 | 5.2 | 12.2 | 0.00 | 0.00 | 0.00 | 55 | 1004.0 |
| 20260505213604 | 88 | 276 | 5.2 | 12.2 | 0.00 | 0.00 | 0.00 | 53 | 1003.8 |
| 20260505213600 | 88 | 278 | 6.1 | 12.2 | 0.00 | 0.00 | 0.00 | 53 | 1003.8 |
| 20260505213503 | 88 | 217 | 6.1 | 12.2 | 0.00 | 0.00 | 0.00 | 52 | 1004.0 |
| 20260505213402 | 89 | 290 | 7.0 | 12.2 | 0.00 | 0.00 | 0.00 | 53 | 1004.0 |
| 20260505213304 | 89 | 220 | 6.1 | 12.2 | 0.00 | 0.00 | 0.00 | 53 | 1003.8 |
| 20260505213150 | 89 | 254 | 4.3 | 8.7 | 0.00 | 0.00 | 0.00 | 55 | 1004.0 |
| 20260505213058 | 89 | 243 | 4.3 | 8.7 | 0.00 | 0.00 | 0.00 | 55 | 1004.0 |
| 20260505213047 | 89 | 259 | 5.2 | 8.7 | 0.00 | 0.00 | 0.00 | 55 | 1004.0 |
| 20260505213011 | 89 | 261 | 4.3 | 11.3 | 0.00 | 0.00 | 0.00 | 55 | 1004.0 |
| 20260505212957 | 89 | 243 | 5.2 | 8.7 | 0.00 | 0.00 | 0.00 | 55 | 1003.8 |
| 20260505212926 | 89 | 293 | 4.3 | 8.7 | 0.00 | 0.00 | 0.00 | 55 | 1003.8 |
| 20260505212854 | 89 | 255 | 5.2 | 8.7 | 0.00 | 0.00 | 0.00 | 55 | 1003.8 |
| 20260505212824 | 89 | 235 | 5.2 | 9.6 | 0.00 | 0.00 | 0.00 | 55 | 1004.0 |
| 20260505212541 | 89 | 250 | 4.3 | 11.3 | 0.00 | 0.00 | 0.00 | 55 | 1004.0 |
| 20260505212442 | 89 | 231 | 4.3 | 11.3 | 0.00 | 0.00 | 0.00 | 56 | 1004.0 |
| 20260505212343 | 89 | 251 | 3.5 | 11.3 | 0.00 | 0.00 | 0.00 | 56 | 1004.0 |
| 20260505212241 | 89 | 199 | 3.5 | 11.3 | 0.00 | 0.00 | 0.00 | 57 | 1004.0 |
| 20260505212141 | 89 | 271 | 3.5 | 11.3 | 0.00 | 0.00 | 0.00 | 59 | 1004.1 |
| 20260505212058 | 89 | 259 | 3.5 | 11.3 | 0.00 | 0.00 | 0.00 | 58 | 1004.0 |
| 20260505212040 | 88 | 223 | 3.5 | 11.3 | 0.00 | 0.00 | 0.00 | 59 | 1004.0 |
| 20260505211941 | 88 | 223 | 4.3 | 11.3 | 0.00 | 0.00 | 0.00 | 56 | 1004.0 |
| 20260505211842 | 88 | 278 | 6.1 | 11.3 | 0.00 | 0.00 | 0.00 | 55 | 1004.0 |
| 20260505211741 | 88 | 252 | 7.0 | 11.3 | 0.00 | 0.00 | 0.00 | 56 | 1004.1 |
| 20260505211641 | 89 | 204 | 6.1 | 11.3 | 0.00 | 0.00 | 0.00 | 57 | 1004.2 |
| 20260505211600 | 89 | 209 | 5.2 | 11.3 | 0.00 | 0.00 | 0.00 | 56 | 1004.1 |
| 20260505211542 | 89 | 197 | 5.2 | 11.3 | 0.00 | 0.00 | 0.00 | 57 | 1004.1 |
| 20260505211440 | 89 | 195 | 5.2 | 11.3 | 0.00 | 0.00 | 0.00 | 58 | 1004.2 |
| 20260505211338 | 88 | 213 | 5.2 | 11.3 | 0.00 | 0.00 | 0.00 | 57 | 1004.2 |
| 20260505211236 | 88 | 210 | 5.2 | 11.3 | 0.00 | 0.00 | 0.00 | 57 | 1004.2 |
| 20260505211135 | 88 | 197 | 4.3 | 11.3 | 0.00 | 0.00 | 0.00 | 59 | 1004.1 |
| 20260505211055 | 88 | 213 | 5.2 | 11.3 | 0.00 | 0.00 | 0.00 | 60 | 1004.1 |
| 20260505211035 | 88 | 209 | 5.2 | 11.3 | 0.00 | 0.00 | 0.00 | 60 | 1004.2 |
| 20260505210935 | 88 | 255 | 6.1 | 11.3 | 0.00 | 0.00 | 0.00 | 58 | 1004.3 |
| 20260505210833 | 88 | 214 | 5.2 | 10.4 | 0.00 | 0.00 | 0.00 | 60 | 1004.3 |
| 20260505210732 | 88 | 247 | 6.1 | 10.4 | 0.00 | 0.00 | 0.00 | 58 | 1004.3 |
| 20260505210634 | 88 | 248 | 6.1 | 10.4 | 0.00 | 0.00 | 0.00 | 57 | 1004.3 |
| 20260505210553 | 88 | 231 | 5.2 | 11.3 | 0.00 | 0.00 | 0.00 | 58 | 1004.3 |
| 20260505210532 | 88 | 247 | 5.2 | 11.3 | 0.00 | 0.00 | 0.00 | 58 | 1004.3 |
| 20260505210432 | 88 | 237 | 5.2 | 11.3 | 0.00 | 0.00 | 0.00 | 60 | 1004.2 |
| 20260505210334 | 88 | 298 | 5.2 | 11.3 | 0.00 | 0.00 | 0.00 | 58 | 1004.3 |
| 20260505210234 | 88 | 234 | 4.3 | 11.3 | 0.00 | 0.00 | 0.00 | 58 | 1004.2 |
| 20260505210133 | 88 | 264 | 5.2 | 11.3 | 0.00 | 0.00 | 0.00 | 56 | 1004.3 |
| 20260505210053 | 88 | 216 | 5.2 | 11.3 | 0.00 | 0.00 | 0.00 | 58 | 1004.3 |
| 20260505210033 | 88 | 254 | 6.1 | 11.3 | 0.00 | 0.00 | 0.00 | 58 | 1004.4 |
| 20260505205934 | 88 | 257 | 6.1 | 13.9 | 0.00 | 0.00 | 0.00 | 57 | 1004.4 |
| 20260505205834 | 88 | 237 | 4.3 | 13.9 | 0.00 | 0.00 | 0.00 | 60 | 1004.4 |
| 20260505205734 | 88 | 259 | 5.2 | 13.9 | 0.00 | 0.00 | 0.00 | 59 | 1004.4 |
| 20260505205633 | 87 | 226 | 6.1 | 13.9 | 0.00 | 0.00 | 0.00 | 59 | 1004.5 |
| 20260505205554 | 87 | 251 | 5.2 | 13.9 | 0.00 | 0.00 | 0.00 | 59 | 1004.5 |
| 20260505205532 | 87 | 252 | 5.2 | 13.9 | 0.00 | 0.00 | 0.00 | 59 | 1004.4 |
| 20260505205432 | 87 | 231 | 7.0 | 13.9 | 0.00 | 0.00 | 0.00 | 60 | 1004.3 |
| 20260505205332 | 87 | 248 | 7.8 | 13.9 | 0.00 | 0.00 | 0.00 | 58 | 1004.4 |
| 20260505205234 | 87 | 213 | 7.8 | 13.9 | 0.00 | 0.00 | 0.00 | 58 | 1004.3 |
| 20260505205130 | 87 | 247 | 8.7 | 13.9 | 0.00 | 0.00 | 0.00 | 57 | 1004.3 |
| 20260505205050 | 87 | 235 | 7.8 | 13.9 | 0.00 | 0.00 | 0.00 | 59 | 1004.3 |
| 20260505205029 | 87 | 223 | 8.7 | 13.9 | 0.00 | 0.00 | 0.00 | 59 | 1004.3 |
| 20260505204926 | 88 | 254 | 7.8 | 10.4 | 0.00 | 0.00 | 0.00 | 58 | 1004.3 |
| 20260505204826 | 88 | 230 | 6.1 | 10.4 | 0.00 | 0.00 | 0.00 | 59 | 1004.4 |
| 20260505204721 | 88 | 233 | 4.3 | 10.4 | 0.00 | 0.00 | 0.00 | 60 | 1004.4 |
| 20260505204619 | 87 | 221 | 5.2 | 10.4 | 0.00 | 0.00 | 0.00 | 60 | 1004.5 |
| 20260505204548 | 87 | 209 | 5.2 | 10.4 | 0.00 | 0.00 | 0.00 | 60 | 1004.5 |
| 20260505204519 | 87 | 206 | 4.3 | 10.4 | 0.00 | 0.00 | 0.00 | 61 | 1004.5 |
| 20260505204449 | 87 | 190 | 5.2 | 9.6 | 0.00 | 0.00 | 0.00 | 60 | 1004.6 |
| 20260505204432 | 87 | 254 | 5.2 | 10.4 | 0.00 | 0.00 | 0.00 | 61 | 1004.5 |
| 20260505204405 | 87 | 254 | 5.2 | 10.4 | 0.00 | 0.00 | 0.00 | 60 | 1004.5 |
| 20260505204336 | 87 | 244 | 4.3 | 9.6 | 0.00 | 0.00 | 0.00 | 59 | 1004.5 |
| 20260505204306 | 87 | 276 | 5.2 | 9.6 | 0.00 | 0.00 | 0.00 | 60 | 1004.6 |
| 20260505204012 | 87 | 257 | 5.2 | 9.6 | 0.00 | 0.00 | 0.00 | 60 | 1004.6 |
| 20260505204006 | 87 | 240 | 4.3 | 9.6 | 0.00 | 0.00 | 0.00 | 60 | 1004.4 |
| 20260505203932 | 87 | 204 | 5.2 | 9.6 | 0.00 | 0.00 | 0.00 | 61 | 1004.6 |
| 20260505203902 | 87 | 230 | 5.2 | 9.6 | 0.00 | 0.00 | 0.00 | 61 | 1004.6 |
| 20260505203832 | 87 | 248 | 5.2 | 9.6 | 0.00 | 0.00 | 0.00 | 60 | 1004.5 |
| 20260505203802 | 87 | 264 | 4.3 | 9.6 | 0.00 | 0.00 | 0.00 | 60 | 1004.4 |
| 20260505203505 | 87 | 251 | 4.3 | 11.3 | 0.00 | 0.00 | 0.00 | 60 | 1004.4 |
| 20260505203405 | 87 | 293 | 4.3 | 11.3 | 0.00 | 0.00 | 0.00 | 61 | 1004.5 |
| 20260505203306 | 87 | 266 | 5.2 | 11.3 | 0.00 | 0.00 | 0.00 | 61 | 1004.5 |
| 20260505203205 | 87 | 214 | 5.2 | 11.3 | 0.00 | 0.00 | 0.00 | 61 | 1004.6 |
| 20260505203104 | 87 | 248 | 5.2 | 11.3 | 0.00 | 0.00 | 0.00 | 62 | 1004.6 |
| 20260505203045 | 86 | 200 | 5.2 | 11.3 | 0.00 | 0.00 | 0.00 | 62 | 1004.6 |
| 20260505203005 | 86 | 274 | 5.2 | 11.3 | 0.00 | 0.00 | 0.00 | 63 | 1004.6 |
| 20260505202903 | 86 | 235 | 5.2 | 11.3 | 0.00 | 0.00 | 0.00 | 63 | 1004.6 |
| 20260505202804 | 86 | 224 | 5.2 | 11.3 | 0.00 | 0.00 | 0.00 | 63 | 1004.6 |
| 20260505202605 | 85 | 179 | 7.0 | 11.3 | 0.00 | 0.00 | 0.00 | 61 | 1004.7 |
| 20260505202544 | 85 | 226 | 7.0 | 11.3 | 0.00 | 0.00 | 0.00 | 61 | 1004.7 |
| 20260505202504 | 85 | 186 | 6.1 | 11.3 | 0.00 | 0.00 | 0.00 | 61 | 1004.8 |
| 20260505202456 | 85 | 214 | 6.1 | 12.2 | 0.00 | 0.00 | 0.00 | 60 | 1004.8 |
| 20260505202428 | 85 | 196 | 5.2 | 12.2 | 0.00 | 0.00 | 0.00 | 61 | 1004.7 |
| 20260505202358 | 85 | 247 | 4.3 | 12.2 | 0.00 | 0.00 | 0.00 | 61 | 1004.8 |
| 20260505202327 | 85 | 219 | 5.2 | 12.2 | 0.00 | 0.00 | 0.00 | 61 | 1004.8 |
| 20260505202256 | 85 | 214 | 6.1 | 12.2 | 0.00 | 0.00 | 0.00 | 60 | 1004.8 |
| 20260505201947 | 85 | 219 | 7.0 | 12.2 | 0.00 | 0.00 | 0.00 | 59 | 1004.8 |
| 20260505201848 | 86 | 231 | 7.0 | 12.2 | 0.00 | 0.00 | 0.00 | 59 | 1004.8 |
| 20260505201746 | 86 | 193 | 6.1 | 12.2 | 0.00 | 0.00 | 0.00 | 60 | 1004.8 |
| 20260505201645 | 86 | 195 | 6.1 | 12.2 | 0.00 | 0.00 | 0.00 | 60 | 1004.9 |
| 20260505201542 | 86 | 257 | 7.8 | 12.2 | 0.00 | 0.00 | 0.00 | 60 | 1004.9 |
| 20260505201441 | 86 | 213 | 7.0 | 11.3 | 0.00 | 0.00 | 0.00 | 61 | 1004.7 |
| 20260505201339 | 86 | 268 | 6.1 | 11.3 | 0.00 | 0.00 | 0.00 | 60 | 1004.8 |
| 20260505201240 | 86 | 266 | 5.2 | 9.6 | 0.00 | 0.00 | 0.00 | 61 | 1004.8 |
| 20260505201137 | 86 | 290 | 6.1 | 9.6 | 0.00 | 0.00 | 0.00 | 60 | 1004.8 |
| 20260505201043 | 86 | 220 | 7.0 | 9.6 | 0.00 | 0.00 | 0.00 | 62 | 1004.8 |
| 20260505201036 | 86 | 203 | 6.1 | 9.6 | 0.00 | 0.00 | 0.00 | 62 | 1004.8 |
| 20260505200933 | 86 | 199 | 4.3 | 9.6 | 0.00 | 0.00 | 0.00 | 61 | 1004.8 |
| 20260505200831 | 86 | 244 | 4.3 | 11.3 | 0.00 | 0.00 | 0.00 | 61 | 1004.7 |
| 20260505200732 | 86 | 219 | 5.2 | 11.3 | 0.00 | 0.00 | 0.00 | 61 | 1004.7 |
| 20260505200632 | 86 | 247 | 5.2 | 11.3 | 0.00 | 0.00 | 0.00 | 61 | 1004.7 |
| 20260505200545 | 86 | 202 | 4.3 | 12.2 | 0.00 | 0.00 | 0.00 | 61 | 1004.7 |
| 20260505200531 | 86 | 224 | 3.5 | 12.2 | 0.00 | 0.00 | 0.00 | 63 | 1004.6 |
| 20260505200432 | 86 | 233 | 4.3 | 12.2 | 0.00 | 0.00 | 0.00 | 61 | 1004.7 |
| 20260505200331 | 86 | 259 | 4.3 | 12.2 | 0.00 | 0.00 | 0.00 | 60 | 1004.7 |
| 20260505200231 | 86 | 244 | 4.3 | 12.2 | 0.00 | 0.00 | 0.00 | 61 | 1004.7 |
| 20260505200133 | 86 | 259 | 4.3 | 12.2 | 0.00 | 0.00 | 0.00 | 60 | 1004.7 |
| 20260505200042 | 86 | 261 | 5.2 | 12.2 | 0.00 | 0.00 | 0.00 | 61 | 1004.7 |
| 20260505200031 | 86 | 245 | 5.2 | 12.2 | 0.00 | 0.00 | 0.00 | 61 | 1004.7 |
| 20260505195929 | 86 | 207 | 7.0 | 12.2 | 0.00 | 0.00 | 0.00 | 61 | 1004.7 |
| 20260505195826 | 86 | 265 | 5.2 | 13.9 | 0.00 | 0.00 | 0.00 | 63 | 1004.8 |
| 20260505195724 | 86 | 196 | 7.0 | 13.9 | 0.00 | 0.00 | 0.00 | 61 | 1004.7 |
| 20260505195624 | 86 | 212 | 7.0 | 13.9 | 0.00 | 0.00 | 0.00 | 61 | 1004.8 |
| 20260505195541 | 86 | 202 | 5.2 | 13.9 | 0.00 | 0.00 | 0.00 | 61 | 1004.8 |
| 20260505195524 | 86 | 220 | 5.2 | 13.9 | 0.00 | 0.00 | 0.00 | 61 | 1004.8 |
| 20260505195421 | 85 | 243 | 4.3 | 13.9 | 0.00 | 0.00 | 0.00 | 62 | 1004.8 |
| 20260505195320 | 85 | 235 | 5.2 | 13.9 | 0.00 | 0.00 | 0.00 | 62 | 1004.8 |
| 20260505195218 | 85 | 217 | 6.1 | 13.9 | 0.00 | 0.00 | 0.00 | 63 | 1004.9 |
| 20260505195117 | 85 | 237 | 6.1 | 13.9 | 0.00 | 0.00 | 0.00 | 63 | 1004.9 |
| 20260505195042 | 85 | 235 | 7.8 | 13.9 | 0.00 | 0.00 | 0.00 | 61 | 1004.9 |
| 20260505195017 | 85 | 196 | 7.8 | 13.9 | 0.00 | 0.00 | 0.00 | 61 | 1004.8 |
| 20260505194915 | 85 | 271 | 7.8 | 13.9 | 0.00 | 0.00 | 0.00 | 61 | 1004.8 |
| 20260505194813 | 85 | 254 | 6.1 | 13.9 | 0.00 | 0.00 | 0.00 | 61 | 1004.8 |
| 20260505194710 | 85 | 237 | 5.2 | 13.9 | 0.00 | 0.00 | 0.00 | 60 | 1004.8 |
| 20260505194610 | 85 | 245 | 6.1 | 13.9 | 0.00 | 0.00 | 0.00 | 61 | 1004.8 |
| 20260505194541 | 85 | 223 | 6.1 | 13.9 | 0.00 | 0.00 | 0.00 | 62 | 1004.8 |
| 20260505194508 | 85 | 234 | 6.1 | 13.9 | 0.00 | 0.00 | 0.00 | 62 | 1004.8 |
| 20260505194407 | 85 | 226 | 6.1 | 13.9 | 0.00 | 0.00 | 0.00 | 62 | 1004.9 |
| 20260505194303 | 85 | 254 | 5.2 | 13.9 | 0.00 | 0.00 | 0.00 | 63 | 1004.9 |
| 20260505194219 | 85 | 227 | 6.1 | 13.9 | 0.00 | 0.00 | 0.00 | 62 | 1004.9 |
| 20260505194106 | 85 | 281 | 8.7 | 13.9 | 0.00 | 0.00 | 0.00 | 62 | 1004.9 |
| 20260505194040 | 85 | 251 | 8.7 | 13.9 | 0.00 | 0.00 | 0.00 | 62 | 1004.9 |
| 20260505194003 | 85 | 234 | 8.7 | 13.9 | 0.00 | 0.00 | 0.00 | 62 | 1004.9 |
| 20260505193902 | 85 | 235 | 7.0 | 13.0 | 0.00 | 0.00 | 0.00 | 62 | 1004.9 |
| 20260505193804 | 85 | 189 | 7.0 | 13.0 | 0.00 | 0.00 | 0.00 | 63 | 1004.9 |
| 20260505193702 | 85 | 231 | 7.0 | 13.0 | 0.00 | 0.00 | 0.00 | 62 | 1004.9 |
| 20260505193602 | 85 | 247 | 7.0 | 13.0 | 0.00 | 0.00 | 0.00 | 63 | 1004.8 |
| 20260505193542 | 85 | 250 | 6.1 | 13.0 | 0.00 | 0.00 | 0.00 | 62 | 1004.8 |
| 20260505193504 | 85 | 266 | 5.2 | 13.0 | 0.00 | 0.00 | 0.00 | 62 | 1004.8 |
| 20260505193403 | 85 | 266 | 5.2 | 13.0 | 0.00 | 0.00 | 0.00 | 62 | 1004.7 |
| 20260505193302 | 85 | 217 | 6.1 | 13.0 | 0.00 | 0.00 | 0.00 | 61 | 1004.7 |
| 20260505193204 | 85 | 214 | 8.7 | 13.0 | 0.00 | 0.00 | 0.00 | 62 | 1004.7 |
| 20260505193102 | 85 | 224 | 8.7 | 13.0 | 0.00 | 0.00 | 0.00 | 61 | 1004.7 |
| 20260505193038 | 85 | 226 | 7.8 | 13.0 | 0.00 | 0.00 | 0.00 | 61 | 1004.7 |
| 20260505193000 | 85 | 248 | 7.0 | 13.0 | 0.00 | 0.00 | 0.00 | 62 | 1004.7 |
| 20260505192900 | 85 | 204 | 7.0 | 13.0 | 0.00 | 0.00 | 0.00 | 62 | 1004.7 |
| 20260505192759 | 86 | 241 | 7.0 | 13.0 | 0.00 | 0.00 | 0.00 | 62 | 1004.7 |
| 20260505192658 | 86 | 193 | 7.0 | 13.0 | 0.00 | 0.00 | 0.00 | 63 | 1004.7 |
| 20260505192555 | 86 | 230 | 7.0 | 13.9 | 0.00 | 0.00 | 0.00 | 62 | 1004.7 |
| 20260505192536 | 86 | 206 | 7.0 | 13.9 | 0.00 | 0.00 | 0.00 | 62 | 1004.7 |
| 20260505192454 | 86 | 192 | 6.1 | 13.9 | 0.00 | 0.00 | 0.00 | 65 | 1004.7 |
| 20260505192351 | 86 | 202 | 6.1 | 13.9 | 0.00 | 0.00 | 0.00 | 63 | 1004.7 |
| 20260505192251 | 85 | 217 | 6.1 | 13.9 | 0.00 | 0.00 | 0.00 | 63 | 1004.7 |
| 20260505192137 | 85 | 233 | 7.0 | 13.9 | 0.00 | 0.00 | 0.00 | 63 | 1004.7 |
| 20260505192038 | 85 | 235 | 5.2 | 13.9 | 0.00 | 0.00 | 0.00 | 63 | 1004.7 |
| 20260505191937 | 85 | 175 | 5.2 | 14.8 | 0.00 | 0.00 | 0.00 | 64 | 1004.7 |
| 20260505191836 | 85 | 186 | 6.1 | 14.8 | 0.00 | 0.00 | 0.00 | 64 | 1004.8 |
| 20260505191738 | 85 | 237 | 7.8 | 14.8 | 0.00 | 0.00 | 0.00 | 63 | 1004.8 |
| 20260505191636 | 85 | 230 | 7.8 | 14.8 | 0.00 | 0.00 | 0.00 | 64 | 1004.9 |
| 20260505191536 | 85 | 233 | 7.0 | 14.8 | 0.00 | 0.00 | 0.00 | 64 | 1004.8 |
| 20260505191436 | 85 | 190 | 7.0 | 14.8 | 0.00 | 0.00 | 0.00 | 64 | 1004.8 |
| 20260505191339 | 85 | 204 | 6.1 | 14.8 | 0.00 | 0.00 | 0.00 | 64 | 1004.8 |
| 20260505191236 | 84 | 193 | 6.1 | 14.8 | 0.00 | 0.00 | 0.00 | 66 | 1004.8 |
| 20260505191137 | 84 | 212 | 7.8 | 14.8 | 0.00 | 0.00 | 0.00 | 65 | 1004.9 |
| 20260505191041 | 84 | 213 | 9.6 | 14.8 | 0.00 | 0.00 | 0.00 | 64 | 1004.8 |
| 20260505191034 | 84 | 228 | 9.6 | 14.8 | 0.00 | 0.00 | 0.00 | 64 | 1004.8 |
| 20260505190936 | 84 | 204 | 9.6 | 14.8 | 0.00 | 0.00 | 0.00 | 63 | 1004.8 |
| 20260505190836 | 85 | 240 | 8.7 | 12.2 | 0.00 | 0.00 | 0.00 | 63 | 1004.7 |
| 20260505190736 | 85 | 207 | 7.8 | 12.2 | 0.00 | 0.00 | 0.00 | 64 | 1004.7 |
| 20260505190639 | 85 | 196 | 6.1 | 12.2 | 0.00 | 0.00 | 0.00 | 65 | 1004.6 |
| 20260505190535 | 84 | 172 | 5.2 | 12.2 | 0.00 | 0.00 | 0.00 | 65 | 1004.6 |
| 20260505190437 | 84 | 206 | 7.0 | 12.2 | 0.00 | 0.00 | 0.00 | 65 | 1004.6 |
| 20260505190336 | 84 | 220 | 7.0 | 12.2 | 0.00 | 0.00 | 0.00 | 64 | 1004.6 |
| 20260505190236 | 84 | 204 | 7.0 | 12.2 | 0.00 | 0.00 | 0.00 | 64 | 1004.6 |
| 20260505190136 | 84 | 199 | 7.0 | 13.9 | 0.00 | 0.00 | 0.00 | 64 | 1004.7 |
| 20260505190034 | 84 | 216 | 7.8 | 15.6 | 0.00 | 0.00 | 0.00 | 63 | 1004.6 |
| 20260505185933 | 84 | 185 | 7.8 | 15.6 | 0.00 | 0.00 | 0.00 | 63 | 1004.7 |
| 20260505185831 | 84 | 223 | 7.8 | 15.6 | 0.00 | 0.00 | 0.00 | 63 | 1004.7 |
| 20260505185731 | 84 | 196 | 7.8 | 15.6 | 0.00 | 0.00 | 0.00 | 62 | 1004.7 |
| 20260505185633 | 84 | 199 | 7.0 | 15.6 | 0.00 | 0.00 | 0.00 | 63 | 1004.8 |
| 20260505185531 | 84 | 274 | 7.0 | 15.6 | 0.00 | 0.00 | 0.00 | 62 | 1004.7 |
| 20260505185432 | 84 | 212 | 7.8 | 15.6 | 0.00 | 0.00 | 0.00 | 62 | 1004.7 |
| 20260505185331 | 84 | 233 | 9.6 | 15.6 | 0.00 | 0.00 | 0.00 | 62 | 1004.8 |
| 20260505185231 | 84 | 190 | 9.6 | 15.6 | 0.00 | 0.00 | 0.00 | 62 | 1004.7 |
| 20260505185130 | 84 | 200 | 7.8 | 15.6 | 0.00 | 0.00 | 0.00 | 62 | 1004.7 |
| 20260505185033 | 84 | 200 | 7.0 | 13.9 | 0.00 | 0.00 | 0.00 | 63 | 1004.8 |
| 20260505185028 | 84 | 283 | 7.0 | 13.9 | 0.00 | 0.00 | 0.00 | 63 | 1004.8 |
| 20260505184927 | 84 | 203 | 6.1 | 13.9 | 0.00 | 0.00 | 0.00 | 64 | 1004.8 |
| 20260505184816 | 84 | 299 | 6.1 | 13.9 | 0.00 | 0.00 | 0.00 | 65 | 1004.8 |
| 20260505184714 | 84 | 274 | 7.0 | 13.9 | 0.00 | 0.00 | 0.00 | 64 | 1004.8 |
| 20260505184615 | 84 | 217 | 7.0 | 13.9 | 0.00 | 0.00 | 0.00 | 63 | 1004.9 |
| 20260505184531 | 84 | 183 | 7.0 | 13.9 | 0.00 | 0.00 | 0.00 | 63 | 1005.0 |
| 20260505184513 | 84 | 244 | 7.0 | 13.9 | 0.00 | 0.00 | 0.00 | 63 | 1005.0 |
| 20260505184411 | 84 | 224 | 7.0 | 13.9 | 0.00 | 0.00 | 0.00 | 63 | 1004.9 |
| 20260505184310 | 84 | 248 | 6.1 | 13.9 | 0.00 | 0.00 | 0.00 | 63 | 1004.9 |
| 20260505184208 | 84 | 274 | 7.8 | 13.9 | 0.00 | 0.00 | 0.00 | 62 | 1005.0 |
| 20260505184104 | 84 | 245 | 9.6 | 13.9 | 0.00 | 0.00 | 0.00 | 64 | 1004.9 |
| 20260505184032 | 84 | 204 | 8.7 | 13.9 | 0.00 | 0.00 | 0.00 | 64 | 1004.9 |
| 20260505184005 | 84 | 210 | 7.8 | 13.9 | 0.00 | 0.00 | 0.00 | 65 | 1004.9 |
| 20260505183902 | 84 | 216 | 7.0 | 13.0 | 0.00 | 0.00 | 0.00 | 63 | 1004.9 |
| 20260505183759 | 84 | 259 | 8.7 | 13.0 | 0.00 | 0.00 | 0.00 | 63 | 1004.9 |
| 20260505183657 | 85 | 182 | 7.8 | 13.0 | 0.00 | 0.00 | 0.00 | 63 | 1004.9 |
| 20260505183556 | 85 | 220 | 7.0 | 12.2 | 0.00 | 0.00 | 0.00 | 65 | 1004.9 |
| 20260505183532 | 85 | 235 | 7.0 | 12.2 | 0.00 | 0.00 | 0.00 | 64 | 1004.8 |
| 20260505183455 | 85 | 240 | 7.0 | 12.2 | 0.00 | 0.00 | 0.00 | 64 | 1004.8 |
| 20260505183354 | 85 | 250 | 6.1 | 12.2 | 0.00 | 0.00 | 0.00 | 66 | 1004.9 |
| 20260505183253 | 85 | 223 | 5.2 | 12.2 | 0.00 | 0.00 | 0.00 | 66 | 1004.9 |
| 20260505183150 | 85 | 234 | 7.0 | 12.2 | 0.00 | 0.00 | 0.00 | 66 | 1004.8 |
| 20260505183049 | 85 | 231 | 7.0 | 12.2 | 0.00 | 0.00 | 0.00 | 64 | 1004.8 |
| 20260505183030 | 85 | 243 | 6.1 | 9.6 | 0.00 | 0.00 | 0.00 | 65 | 1004.8 |
| 20260505182948 | 85 | 185 | 6.1 | 13.9 | 0.00 | 0.00 | 0.00 | 66 | 1004.8 |
| 20260505182846 | 85 | 220 | 5.2 | 13.9 | 0.00 | 0.00 | 0.00 | 64 | 1004.8 |
| 20260505182744 | 85 | 220 | 5.2 | 13.9 | 0.00 | 0.00 | 0.00 | 67 | 1004.7 |
| 20260505182644 | 84 | 195 | 5.2 | 13.9 | 0.00 | 0.00 | 0.00 | 67 | 1004.7 |
| 20260505182542 | 84 | 202 | 4.3 | 13.9 | 0.00 | 0.00 | 0.00 | 67 | 1004.8 |
| 20260505182533 | 84 | 221 | 5.2 | 13.9 | 0.00 | 0.00 | 0.00 | 66 | 1004.7 |
| 20260505182440 | 84 | 278 | 5.2 | 13.9 | 0.00 | 0.00 | 0.00 | 65 | 1004.7 |
| 20260505182339 | 83 | 210 | 6.1 | 13.9 | 0.00 | 0.00 | 0.00 | 65 | 1004.8 |
| 20260505182309 | 83 | 183 | 5.2 | 13.9 | 0.00 | 0.00 | 0.00 | 65 | 1004.8 |
| 20260505182138 | 83 | 224 | 7.8 | 13.9 | 0.00 | 0.00 | 0.00 | 65 | 1004.8 |
| 20260505182038 | 83 | 209 | 8.7 | 13.9 | 0.00 | 0.00 | 0.00 | 66 | 1004.8 |
| 20260505182019 | 83 | 195 | 7.8 | 13.9 | 0.00 | 0.00 | 0.00 | 66 | 1004.8 |
| 20260505181937 | 83 | 179 | 7.8 | 11.3 | 0.00 | 0.00 | 0.00 | 66 | 1004.8 |
| 20260505181837 | 83 | 168 | 7.8 | 10.4 | 0.00 | 0.00 | 0.00 | 66 | 1004.9 |
| 20260505181737 | 83 | 203 | 7.0 | 10.4 | 0.00 | 0.00 | 0.00 | 67 | 1004.9 |
| 20260505181640 | 83 | 179 | 6.1 | 9.6 | 0.00 | 0.00 | 0.00 | 67 | 1005.0 |
| 20260505181537 | 83 | 210 | 6.1 | 10.4 | 0.00 | 0.00 | 0.00 | 67 | 1004.9 |
| 20260505181519 | 83 | 202 | 6.1 | 10.4 | 0.00 | 0.00 | 0.00 | 67 | 1005.0 |
| 20260505181437 | 83 | 202 | 6.1 | 13.0 | 0.00 | 0.00 | 0.00 | 67 | 1005.0 |
| 20260505181335 | 83 | 173 | 5.2 | 13.0 | 0.00 | 0.00 | 0.00 | 67 | 1005.0 |
| 20260505181233 | 83 | 214 | 5.2 | 14.8 | 0.00 | 0.00 | 0.00 | 68 | 1005.0 |
| 20260505181134 | 83 | 288 | 5.2 | 14.8 | 0.00 | 0.00 | 0.00 | 67 | 1005.0 |
| 20260505181019 | 83 | 190 | 6.1 | 14.8 | 0.00 | 0.00 | 0.00 | 68 | 1005.0 |
| 20260505181011 | 83 | 217 | 6.1 | 14.8 | 0.00 | 0.00 | 0.00 | 67 | 1005.0 |
| 20260505180919 | 83 | 219 | 8.7 | 14.8 | 0.00 | 0.00 | 0.00 | 66 | 1005.0 |
| 20260505180909 | 83 | 217 | 7.0 | 14.8 | 0.00 | 0.00 | 0.00 | 67 | 1005.0 |
| 20260505180844 | 83 | 197 | 7.8 | 14.8 | 0.00 | 0.00 | 0.00 | 67 | 1005.0 |
| 20260505180816 | 83 | 204 | 7.0 | 14.8 | 0.00 | 0.00 | 0.00 | 67 | 1005.0 |
| 20260505180747 | 83 | 188 | 7.8 | 14.8 | 0.00 | 0.00 | 0.00 | 67 | 1005.0 |
| 20260505180505 | 83 | 206 | 7.8 | 14.8 | 0.00 | 0.00 | 0.00 | 66 | 1005.0 |
| 20260505180404 | 83 | 216 | 7.0 | 14.8 | 0.00 | 0.00 | 0.00 | 68 | 1005.0 |
| 20260505180305 | 83 | 207 | 6.1 | 13.9 | 0.00 | 0.00 | 0.00 | 68 | 1005.0 |
| 20260505180204 | 83 | 240 | 7.0 | 13.9 | 0.00 | 0.00 | 0.00 | 68 | 1005.0 |
| 20260505180104 | 83 | 240 | 8.7 | 13.9 | 0.00 | 0.00 | 0.00 | 67 | 1005.0 |
| 20260505180017 | 82 | 216 | 7.8 | 13.9 | 0.00 | 0.00 | 0.00 | 67 | 1004.9 |
| 20260505180004 | 82 | 226 | 7.8 | 13.9 | 0.00 | 0.00 | 0.00 | 68 | 1004.9 |
| 20260505175905 | 82 | 186 | 7.8 | 13.0 | 0.00 | 0.00 | 0.00 | 68 | 1005.0 |
| 20260505175805 | 82 | 192 | 7.8 | 13.0 | 0.00 | 0.00 | 0.00 | 68 | 1004.9 |
| 20260505175701 | 82 | 248 | 7.0 | 13.0 | 0.00 | 0.00 | 0.00 | 67 | 1004.9 |
| 20260505175559 | 82 | 202 | 6.1 | 15.6 | 0.00 | 0.00 | 0.00 | 68 | 1004.9 |
| 20260505175514 | 82 | 275 | 7.0 | 15.6 | 0.00 | 0.00 | 0.00 | 68 | 1004.9 |
| 20260505175458 | 82 | 254 | 7.0 | 15.6 | 0.00 | 0.00 | 0.00 | 68 | 1004.9 |
| 20260505175356 | 82 | 247 | 7.8 | 15.6 | 0.00 | 0.00 | 0.00 | 67 | 1004.9 |
| 20260505175247 | 82 | 254 | 8.7 | 15.6 | 0.00 | 0.00 | 0.00 | 67 | 1004.9 |
| 20260505175142 | 82 | 204 | 7.8 | 15.6 | 0.00 | 0.00 | 0.00 | 68 | 1005.0 |
| 20260505175040 | 82 | 165 | 7.8 | 15.6 | 0.00 | 0.00 | 0.00 | 69 | 1005.0 |
| 20260505175016 | 82 | 223 | 7.8 | 17.4 | 0.00 | 0.00 | 0.00 | 69 | 1004.9 |
| 20260505174939 | 82 | 216 | 7.0 | 17.4 | 0.00 | 0.00 | 0.00 | 69 | 1004.9 |
| 20260505174837 | 82 | 180 | 6.1 | 17.4 | 0.00 | 0.00 | 0.00 | 68 | 1004.9 |
| 20260505174736 | 82 | 221 | 7.8 | 17.4 | 0.00 | 0.00 | 0.00 | 69 | 1004.9 |
| 20260505174641 | 82 | 217 | 7.8 | 17.4 | 0.00 | 0.00 | 0.00 | 69 | 1004.9 |
| 20260505174534 | 82 | 210 | 7.0 | 17.4 | 0.00 | 0.00 | 0.00 | 68 | 1004.9 |
| 20260505174516 | 82 | 193 | 7.0 | 17.4 | 0.00 | 0.00 | 0.00 | 68 | 1004.9 |
| 20260505174435 | 82 | 257 | 7.8 | 17.4 | 0.00 | 0.00 | 0.00 | 69 | 1004.9 |
| 20260505174335 | 82 | 188 | 7.8 | 17.4 | 0.00 | 0.00 | 0.00 | 68 | 1004.9 |
| 20260505174234 | 82 | 245 | 7.8 | 17.4 | 0.00 | 0.00 | 0.00 | 68 | 1004.9 |
| 20260505174134 | 82 | 220 | 9.6 | 17.4 | 0.00 | 0.00 | 0.00 | 68 | 1004.9 |
| 20260505174035 | 82 | 228 | 10.4 | 17.4 | 0.00 | 0.00 | 0.00 | 68 | 1005.0 |
| 20260505174011 | 82 | 228 | 9.6 | 14.8 | 0.00 | 0.00 | 0.00 | 68 | 1005.0 |
| 20260505173936 | 82 | 200 | 8.7 | 14.8 | 0.00 | 0.00 | 0.00 | 68 | 1005.0 |
| 20260505173834 | 82 | 158 | 7.8 | 14.8 | 0.00 | 0.00 | 0.00 | 70 | 1004.9 |
| 20260505173734 | 82 | 192 | 7.8 | 14.8 | 0.00 | 0.00 | 0.00 | 69 | 1005.0 |
| 20260505173631 | 82 | 204 | 7.0 | 14.8 | 0.00 | 0.00 | 0.00 | 69 | 1004.9 |
| 20260505173532 | 82 | 162 | 7.8 | 14.8 | 0.00 | 0.00 | 0.00 | 70 | 1004.9 |
| 20260505173508 | 82 | 209 | 8.7 | 14.8 | 0.00 | 0.00 | 0.00 | 69 | 1004.9 |
| 20260505173432 | 82 | 209 | 9.6 | 14.8 | 0.00 | 0.00 | 0.00 | 69 | 1004.9 |
| 20260505173332 | 82 | 162 | 9.6 | 14.8 | 0.00 | 0.00 | 0.00 | 69 | 1005.0 |
| 20260505173230 | 82 | 200 | 7.8 | 14.8 | 0.00 | 0.00 | 0.00 | 69 | 1004.9 |
| 20260505173132 | 82 | 186 | 7.0 | 14.8 | 0.00 | 0.00 | 0.00 | 70 | 1004.9 |
| 20260505173032 | 82 | 214 | 7.8 | 14.8 | 0.00 | 0.00 | 0.00 | 71 | 1004.9 |
| 20260505173007 | 82 | 173 | 7.0 | 14.8 | 0.00 | 0.00 | 0.00 | 71 | 1004.9 |
| 20260505172931 | 82 | 244 | 7.8 | 14.8 | 0.00 | 0.00 | 0.00 | 71 | 1004.9 |
| 20260505172831 | 82 | 185 | 8.7 | 14.8 | 0.00 | 0.00 | 0.00 | 70 | 1004.9 |
| 20260505172733 | 82 | 210 | 10.4 | 14.8 | 0.00 | 0.00 | 0.00 | 69 | 1004.9 |
| 20260505172631 | 82 | 178 | 9.6 | 14.8 | 0.00 | 0.00 | 0.00 | 70 | 1004.9 |
| 20260505172532 | 82 | 173 | 8.7 | 14.8 | 0.00 | 0.00 | 0.00 | 71 | 1004.9 |
| 20260505172505 | 82 | 206 | 7.8 | 14.8 | 0.00 | 0.00 | 0.00 | 71 | 1004.9 |
| 20260505172433 | 82 | 203 | 7.8 | 14.8 | 0.00 | 0.00 | 0.00 | 70 | 1004.9 |
| 20260505172332 | 81 | 245 | 9.6 | 14.8 | 0.00 | 0.00 | 0.00 | 71 | 1004.9 |
| 20260505172232 | 81 | 166 | 9.6 | 14.8 | 0.00 | 0.00 | 0.00 | 71 | 1005.0 |
| 20260505172131 | 81 | 162 | 7.8 | 14.8 | 0.00 | 0.00 | 0.00 | 72 | 1004.9 |
| 20260505172033 | 81 | 202 | 5.2 | 14.8 | 0.00 | 0.00 | 0.00 | 73 | 1004.9 |
| 20260505172005 | 81 | 214 | 5.2 | 14.8 | 0.00 | 0.00 | 0.00 | 73 | 1004.9 |
| 20260505171932 | 81 | 219 | 5.2 | 14.8 | 0.00 | 0.00 | 0.00 | 73 | 1004.8 |
| 20260505171828 | 81 | 223 | 6.1 | 14.8 | 0.00 | 0.00 | 0.00 | 72 | 1004.9 |
| 20260505171729 | 80 | 214 | 7.8 | 14.8 | 0.00 | 0.00 | 0.00 | 72 | 1004.8 |
| 20260505171608 | 80 | 197 | 8.7 | 14.8 | 0.00 | 0.00 | 0.00 | 72 | 1004.9 |
| 20260505171507 | 80 | 175 | 7.0 | 14.8 | 0.00 | 0.00 | 0.00 | 72 | 1004.9 |
| 20260505171404 | 80 | 169 | 5.2 | 13.9 | 0.00 | 0.00 | 0.00 | 73 | 1004.9 |
| 20260505171305 | 80 | 147 | 7.0 | 13.9 | 0.00 | 0.00 | 0.00 | 72 | 1004.9 |
| 20260505171200 | 80 | 190 | 8.7 | 13.9 | 0.00 | 0.00 | 0.00 | 72 | 1004.9 |
| 20260505171058 | 80 | 182 | 7.8 | 13.9 | 0.00 | 0.00 | 0.00 | 73 | 1005.0 |
| 20260505171003 | 80 | 178 | 7.8 | 13.0 | 0.00 | 0.00 | 0.00 | 72 | 1005.0 |
| 20260505170957 | 80 | 207 | 7.8 | 13.0 | 0.00 | 0.00 | 0.00 | 72 | 1005.0 |
| 20260505170852 | 80 | 216 | 7.8 | 13.0 | 0.00 | 0.00 | 0.00 | 72 | 1005.0 |
| 20260505170824 | 79 | 199 | 8.7 | 13.9 | 0.00 | 0.00 | 0.00 | 73 | 1004.9 |
| 20260505170806 | 79 | 178 | 7.0 | 13.9 | 0.00 | 0.00 | 0.00 | 73 | 1005.0 |
| 20260505170738 | 79 | 202 | 7.8 | 13.9 | 0.00 | 0.00 | 0.00 | 73 | 1005.1 |
| 20260505170707 | 79 | 216 | 7.0 | 13.9 | 0.00 | 0.00 | 0.00 | 73 | 1005.1 |
| 20260505170643 | 79 | 188 | 7.0 | 13.9 | 0.00 | 0.00 | 0.00 | 73 | 1004.9 |
| 20260505170632 | 79 | 220 | 7.0 | 13.9 | 0.00 | 0.00 | 0.00 | 73 | 1004.9 |
| 20260505170353 | 79 | 164 | 7.0 | 13.9 | 0.00 | 0.00 | 0.00 | 73 | 1004.7 |
| 20260505170324 | 79 | 230 | 7.8 | 13.9 | 0.00 | 0.00 | 0.00 | 73 | 1004.6 |
| 20260505170252 | 79 | 190 | 8.7 | 13.9 | 0.00 | 0.00 | 0.00 | 73 | 1004.7 |
| 20260505170225 | 79 | 162 | 8.7 | 13.9 | 0.00 | 0.00 | 0.00 | 73 | 1004.8 |
| 20260505165936 | 79 | 217 | 7.8 | 13.9 | 0.00 | 0.00 | 0.00 | 73 | 1004.9 |
| 20260505165839 | 79 | 216 | 7.8 | 13.9 | 0.00 | 0.00 | 0.00 | 73 | 1005.1 |
| 20260505165736 | 79 | 214 | 7.8 | 13.9 | 0.00 | 0.00 | 0.00 | 73 | 1005.1 |
| 20260505165636 | 79 | 207 | 7.8 | 13.9 | 0.00 | 0.00 | 0.00 | 73 | 1005.1 |
| 20260505165534 | 79 | 196 | 7.8 | 12.2 | 0.00 | 0.00 | 0.00 | 72 | 1005.1 |
| 20260505165459 | 79 | 180 | 7.8 | 12.2 | 0.00 | 0.00 | 0.00 | 73 | 1005.0 |
| 20260505165437 | 79 | 202 | 7.8 | 12.2 | 0.00 | 0.00 | 0.00 | 73 | 1005.0 |
| 20260505165334 | 79 | 195 | 7.8 | 12.2 | 0.00 | 0.00 | 0.00 | 73 | 1005.0 |
| 20260505165235 | 79 | 268 | 7.0 | 12.2 | 0.00 | 0.00 | 0.00 | 74 | 1005.1 |
| 20260505165134 | 79 | 171 | 7.8 | 12.2 | 0.00 | 0.00 | 0.00 | 74 | 1005.0 |
| 20260505165034 | 79 | 221 | 8.7 | 12.2 | 0.00 | 0.00 | 0.00 | 73 | 1004.9 |
| 20260505164959 | 79 | 238 | 7.8 | 12.2 | 0.00 | 0.00 | 0.00 | 73 | 1004.8 |
| 20260505164936 | 79 | 182 | 7.8 | 12.2 | 0.00 | 0.00 | 0.00 | 73 | 1004.8 |
| 20260505164901 | 79 | 241 | 5.2 | 13.0 | 0.00 | 0.00 | 0.00 | 75 | 1004.9 |
| 20260505164846 | 79 | 178 | 7.8 | 12.2 | 0.00 | 0.00 | 0.00 | 73 | 1004.9 |
| 20260505164818 | 79 | 224 | 7.0 | 12.2 | 0.00 | 0.00 | 0.00 | 73 | 1004.9 |
| 20260505164749 | 79 | 131 | 4.3 | 12.2 | 0.00 | 0.00 | 0.00 | 75 | 1005.0 |
| 20260505164720 | 79 | 217 | 5.2 | 13.0 | 0.00 | 0.00 | 0.00 | 75 | 1004.9 |
| 20260505164430 | 79 | 188 | 5.2 | 13.0 | 0.00 | 0.00 | 0.00 | 75 | 1004.9 |
| 20260505164319 | 78 | 228 | 6.1 | 13.0 | 0.00 | 0.00 | 0.00 | 74 | 1004.9 |
| 20260505164218 | 78 | 235 | 7.8 | 13.0 | 0.00 | 0.00 | 0.00 | 74 | 1004.9 |
| 20260505164115 | 78 | 207 | 7.8 | 13.0 | 0.00 | 0.00 | 0.00 | 74 | 1004.9 |
| 20260505164013 | 78 | 173 | 7.8 | 13.0 | 0.00 | 0.00 | 0.00 | 75 | 1005.0 |
| 20260505163953 | 78 | 203 | 7.8 | 13.0 | 0.00 | 0.00 | 0.00 | 75 | 1005.0 |
| 20260505163933 | 78 | 197 | 6.1 | 12.2 | 0.00 | 0.00 | 0.00 | 75 | 1005.1 |
| 20260505163921 | 78 | 204 | 7.8 | 13.0 | 0.00 | 0.00 | 0.00 | 75 | 1005.0 |
| 20260505163852 | 78 | 203 | 7.0 | 13.0 | 0.00 | 0.00 | 0.00 | 75 | 1004.9 |
| 20260505163819 | 78 | 176 | 7.8 | 13.0 | 0.00 | 0.00 | 0.00 | 75 | 1005.0 |
| 20260505163737 | 78 | 176 | 7.8 | 13.0 | 0.00 | 0.00 | 0.00 | 75 | 1005.1 |
| 20260505163707 | 78 | 190 | 7.0 | 12.2 | 0.00 | 0.00 | 0.00 | 75 | 1005.1 |
| 20260505163425 | 78 | 175 | 4.3 | 11.3 | 0.00 | 0.00 | 0.00 | 76 | 1005.0 |
| 20260505163341 | 78 | 233 | 5.2 | 11.3 | 0.00 | 0.00 | 0.00 | 76 | 1005.1 |
| 20260505163305 | 78 | 212 | 7.0 | 11.3 | 0.00 | 0.00 | 0.00 | 76 | 1005.1 |
| 20260505163235 | 78 | 209 | 6.1 | 11.3 | 0.00 | 0.00 | 0.00 | 76 | 1005.0 |
| 20260505163206 | 78 | 196 | 4.3 | 11.3 | 0.00 | 0.00 | 0.00 | 76 | 1005.0 |
| 20260505162905 | 78 | 202 | 4.3 | 14.8 | 0.00 | 0.00 | 0.00 | 76 | 1004.9 |
| 20260505162853 | 78 | 217 | 6.1 | 14.8 | 0.00 | 0.00 | 0.00 | 76 | 1005.2 |
| 20260505162831 | 78 | 161 | 5.2 | 14.8 | 0.00 | 0.00 | 0.00 | 76 | 1004.9 |
| 20260505162804 | 78 | 152 | 7.0 | 14.8 | 0.00 | 0.00 | 0.00 | 76 | 1004.9 |
| 20260505162735 | 78 | 214 | 7.8 | 14.8 | 0.00 | 0.00 | 0.00 | 75 | 1005.1 |
| 20260505162706 | 78 | 202 | 7.0 | 14.8 | 0.00 | 0.00 | 0.00 | 76 | 1005.2 |
| 20260505162405 | 78 | 192 | 5.2 | 14.8 | 0.00 | 0.00 | 0.00 | 76 | 1005.2 |
| 20260505162307 | 78 | 202 | 6.1 | 14.8 | 0.00 | 0.00 | 0.00 | 76 | 1005.2 |
| 20260505162206 | 78 | 234 | 7.8 | 14.8 | 0.00 | 0.00 | 0.00 | 76 | 1005.2 |
| 20260505162106 | 78 | 217 | 7.8 | 14.8 | 0.00 | 0.00 | 0.00 | 75 | 1005.1 |
| 20260505162007 | 78 | 202 | 7.8 | 14.8 | 0.00 | 0.00 | 0.00 | 75 | 1005.1 |
| 20260505161949 | 78 | 157 | 8.7 | 14.8 | 0.00 | 0.00 | 0.00 | 75 | 1005.1 |
| 20260505161905 | 78 | 162 | 8.7 | 13.0 | 0.00 | 0.00 | 0.00 | 75 | 1005.1 |
| 20260505161806 | 78 | 209 | 7.8 | 13.0 | 0.00 | 0.00 | 0.00 | 75 | 1005.1 |
| 20260505161706 | 78 | 169 | 7.8 | 13.0 | 0.00 | 0.00 | 0.00 | 75 | 1005.0 |
| 20260505161605 | 78 | 220 | 7.0 | 13.0 | 0.00 | 0.00 | 0.00 | 75 | 1005.0 |
| 20260505161506 | 78 | 217 | 6.1 | 13.9 | 0.00 | 0.00 | 0.00 | 75 | 1004.9 |
| 20260505161450 | 78 | 223 | 6.1 | 13.9 | 0.00 | 0.00 | 0.00 | 75 | 1004.9 |
| 20260505161401 | 78 | 216 | 6.1 | 13.9 | 0.00 | 0.00 | 0.00 | 75 | 1005.0 |
| 20260505161256 | 78 | 207 | 7.0 | 13.9 | 0.00 | 0.00 | 0.00 | 75 | 1004.9 |
| 20260505161155 | 78 | 206 | 7.0 | 13.9 | 0.00 | 0.00 | 0.00 | 75 | 1005.0 |
| 20260505161052 | 78 | 214 | 7.8 | 13.9 | 0.00 | 0.00 | 0.00 | 75 | 1004.9 |
| 20260505160952 | 78 | 193 | 7.8 | 13.9 | 0.00 | 0.00 | 0.00 | 75 | 1004.9 |
| 20260505160840 | 78 | 161 | 7.8 | 13.9 | 0.00 | 0.00 | 0.00 | 75 | 1004.8 |
| 20260505160738 | 78 | 235 | 7.0 | 13.9 | 0.00 | 0.00 | 0.00 | 75 | 1004.8 |
| 20260505160637 | 78 | 192 | 7.8 | 13.9 | 0.00 | 0.00 | 0.00 | 75 | 1004.8 |
| 20260505160605 | 75 | 196 | 6.1 | 15.6 | 0.00 | 0.00 | 0.00 | 80 | 1004.9 |
| 20260505160555 | 78 | 200 | 7.8 | 13.9 | 0.00 | 0.00 | 0.00 | 75 | 1004.7 |
| 20260505160549 | 78 | 172 | 9.6 | 18.2 | 0.00 | 0.00 | 0.00 | 76 | 1004.7 |
| 20260505160542 | 77 | 234 | 8.7 | 18.2 | 0.00 | 0.00 | 0.00 | 77 | 1004.6 |
| 20260505160536 | 78 | 206 | 6.1 | 14.8 | 0.00 | 0.00 | 0.00 | 75 | 1004.7 |
| 20260505160527 | 77 | 195 | 10.4 | 18.2 | 0.00 | 0.00 | 0.00 | 77 | 1004.5 |
| 20260505160521 | 75 | 186 | 5.2 | 15.6 | 0.00 | 0.00 | 0.00 | 80 | 1004.8 |
| 20260505160459 | 78 | 219 | 6.1 | 14.8 | 0.00 | 0.00 | 0.00 | 75 | 1004.7 |
| 20260505160452 | 78 | 286 | 6.1 | 14.8 | 0.00 | 0.00 | 0.00 | 75 | 1004.7 |
| 20260505160423 | 78 | 185 | 7.8 | 14.8 | 0.00 | 0.00 | 0.00 | 75 | 1004.8 |
| 20260505160352 | 78 | 188 | 7.0 | 14.8 | 0.00 | 0.00 | 0.00 | 75 | 1004.8 |
| 20260505160325 | 78 | 217 | 7.0 | 14.8 | 0.00 | 0.00 | 0.00 | 76 | 1004.8 |
| 20260505153331 | 75 | 202 | 7.0 | 15.6 | 0.00 | 0.00 | 0.00 | 80 | 1004.5 |
| 20260505153301 | 75 | 195 | 7.8 | 15.6 | 0.00 | 0.00 | 0.00 | 79 | 1004.6 |
| 20260505153234 | 75 | 228 | 8.7 | 15.6 | 0.00 | 0.00 | 0.00 | 79 | 1004.7 |
| 20260505153209 | 75 | 202 | 7.8 | 15.6 | 0.00 | 0.00 | 0.00 | 80 | 1004.6 |
| 20260505153139 | 75 | 182 | 7.8 | 15.6 | 0.00 | 0.00 | 0.00 | 80 | 1004.6 |
| 20260505153105 | 75 | 213 | 8.7 | 13.9 | 0.00 | 0.00 | 0.00 | 80 | 1004.7 |
| 20260505153036 | 75 | 207 | 8.7 | 13.0 | 0.00 | 0.00 | 0.00 | 79 | 1004.7 |
| 20260505153007 | 75 | 230 | 7.0 | 12.2 | 0.00 | 0.00 | 0.00 | 80 | 1004.8 |
| 20260505151223 | 75 | 186 | 5.2 | 15.6 | 0.00 | 0.00 | 0.00 | 80 | 1004.8 |
| 20260505151155 | 75 | 213 | 5.2 | 15.6 | 0.00 | 0.00 | 0.00 | 80 | 1004.9 |
| 20260505150907 | 75 | 182 | 6.1 | 15.6 | 0.00 | 0.00 | 0.00 | 80 | 1004.8 |
| 20260505150758 | 75 | 221 | 6.1 | 15.6 | 0.00 | 0.00 | 0.00 | 80 | 1004.8 |
| 20260505150657 | 75 | 234 | 6.1 | 15.6 | 0.00 | 0.00 | 0.00 | 80 | 1004.8 |
| 20260505150555 | 75 | 209 | 6.1 | 15.6 | 0.00 | 0.00 | 0.00 | 80 | 1004.7 |
| 20260505150454 | 75 | 234 | 7.0 | 15.6 | 0.00 | 0.00 | 0.00 | 80 | 1004.8 |
| 20260505150431 | 75 | 162 | 7.8 | 15.6 | 0.00 | 0.00 | 0.00 | 80 | 1004.8 |
| 20260505150354 | 75 | 197 | 8.7 | 15.6 | 0.00 | 0.00 | 0.00 | 80 | 1004.7 |
| 20260505150300 | 75 | 206 | 9.6 | 15.6 | 0.00 | 0.00 | 0.00 | 80 | 1004.7 |
| 20260505150150 | 75 | 207 | 7.0 | 16.5 | 0.00 | 0.00 | 0.00 | 81 | 1004.7 |
| 20260505140615 | 73 | 209 | 9.6 | 16.5 | 0.00 | 0.00 | 0.00 | 83 | 1004.5 |
| 20260505140512 | 73 | 212 | 9.6 | 16.5 | 0.00 | 0.00 | 0.00 | 83 | 1004.6 |
| 20260505140430 | 73 | 203 | 9.6 | 16.5 | 0.00 | 0.00 | 0.00 | 83 | 1004.6 |
| 20260505140410 | 73 | 196 | 9.6 | 16.5 | 0.00 | 0.00 | 0.00 | 83 | 1004.5 |
| 20260505140310 | 73 | 214 | 11.3 | 16.5 | 0.00 | 0.00 | 0.00 | 83 | 1004.5 |
| 20260505140210 | 73 | 204 | 7.8 | 15.6 | 0.00 | 0.00 | 0.00 | 83 | 1004.5 |
| 20260505140108 | 73 | 195 | 7.0 | 13.9 | 0.00 | 0.00 | 0.00 | 83 | 1004.6 |
| 20260505130239 | 72 | 161 | 5.2 | 16.5 | 0.00 | 0.00 | 0.00 | 84 | 1004.6 |
| 20260505130136 | 72 | 168 | 7.0 | 16.5 | 0.00 | 0.00 | 0.00 | 84 | 1004.6 |
| 20260505125028 | 72 | 190 | 7.0 | 13.9 | 0.00 | 0.00 | 0.00 | 84 | 1004.6 |
| 20260505124933 | 72 | 186 | 7.0 | 13.9 | 0.00 | 0.00 | 0.00 | 84 | 1004.6 |
| 20260505124926 | 72 | 203 | 7.0 | 13.9 | 0.00 | 0.00 | 0.00 | 84 | 1004.5 |
| 20260505124825 | 72 | 192 | 7.8 | 15.6 | 0.00 | 0.00 | 0.00 | 84 | 1004.6 |
| 20260505124723 | 72 | 176 | 7.8 | 15.6 | 0.00 | 0.00 | 0.00 | 84 | 1004.6 |
| 20260505124612 | 72 | 252 | 5.2 | 15.6 | 0.00 | 0.00 | 0.00 | 84 | 1004.5 |
| 20260505124511 | 72 | 176 | 5.2 | 15.6 | 0.00 | 0.00 | 0.00 | 84 | 1004.5 |
| 20260505124429 | 72 | 193 | 7.0 | 15.6 | 0.00 | 0.00 | 0.00 | 84 | 1004.5 |
| 20260505124409 | 72 | 221 | 7.8 | 15.6 | 0.00 | 0.00 | 0.00 | 84 | 1004.5 |
| 20260505124308 | 72 | 179 | 8.7 | 15.6 | 0.00 | 0.00 | 0.00 | 84 | 1004.4 |
| 20260505124205 | 72 | 220 | 7.8 | 15.6 | 0.00 | 0.00 | 0.00 | 84 | 1004.4 |
| 20260505124104 | 72 | 196 | 7.0 | 15.6 | 0.00 | 0.00 | 0.00 | 84 | 1004.4 |
| 20260505124005 | 72 | 210 | 9.6 | 15.6 | 0.00 | 0.00 | 0.00 | 83 | 1004.3 |
| 20260505123930 | 72 | 217 | 8.7 | 15.6 | 0.00 | 0.00 | 0.00 | 83 | 1004.3 |
| 20260505123904 | 72 | 203 | 8.7 | 15.6 | 0.00 | 0.00 | 0.00 | 83 | 1004.4 |
| 20260505123806 | 72 | 154 | 7.8 | 14.8 | 0.00 | 0.00 | 0.00 | 83 | 1004.3 |
| 20260505123702 | 72 | 233 | 7.0 | 14.8 | 0.00 | 0.00 | 0.00 | 83 | 1004.3 |
| 20260505123552 | 72 | 189 | 7.0 | 14.8 | 0.00 | 0.00 | 0.00 | 83 | 1004.4 |
| 20260505123449 | 72 | 209 | 7.8 | 14.8 | 0.00 | 0.00 | 0.00 | 83 | 1004.3 |
| 20260505123428 | 72 | 210 | 7.8 | 14.8 | 0.00 | 0.00 | 0.00 | 84 | 1004.3 |
| 20260505123349 | 72 | 209 | 7.8 | 14.8 | 0.00 | 0.00 | 0.00 | 84 | 1004.3 |
| 20260505123246 | 72 | 157 | 6.1 | 12.2 | 0.00 | 0.00 | 0.00 | 84 | 1004.2 |
| 20260505123147 | 72 | 223 | 6.1 | 12.2 | 0.00 | 0.00 | 0.00 | 84 | 1004.2 |
| 20260505123045 | 72 | 141 | 6.1 | 12.2 | 0.00 | 0.00 | 0.00 | 84 | 1004.3 |
| 20260505122942 | 72 | 226 | 7.0 | 12.2 | 0.00 | 0.00 | 0.00 | 84 | 1004.3 |
| 20260505122927 | 72 | 186 | 7.0 | 12.2 | 0.00 | 0.00 | 0.00 | 84 | 1004.3 |
| 20260505122840 | 72 | 202 | 6.1 | 13.0 | 0.00 | 0.00 | 0.00 | 84 | 1004.2 |
| 20260505122739 | 72 | 138 | 6.1 | 13.0 | 0.00 | 0.00 | 0.00 | 83 | 1004.3 |
| 20260505122632 | 72 | 202 | 7.0 | 13.0 | 0.00 | 0.00 | 0.00 | 83 | 1004.1 |
| 20260505122533 | 72 | 182 | 7.0 | 13.0 | 0.00 | 0.00 | 0.00 | 84 | 1004.2 |
| 20260505122435 | 72 | 195 | 7.0 | 13.0 | 0.00 | 0.00 | 0.00 | 83 | 1004.3 |
| 20260505122429 | 72 | 204 | 7.0 | 13.0 | 0.00 | 0.00 | 0.00 | 83 | 1004.3 |
| 20260505122334 | 72 | 226 | 5.2 | 13.0 | 0.00 | 0.00 | 0.00 | 83 | 1004.2 |
| 20260505122234 | 72 | 192 | 6.1 | 13.0 | 0.00 | 0.00 | 0.00 | 83 | 1004.1 |
| 20260505122133 | 72 | 169 | 7.0 | 13.0 | 0.00 | 0.00 | 0.00 | 84 | 1004.2 |
| 20260505122032 | 72 | 178 | 7.8 | 13.0 | 0.00 | 0.00 | 0.00 | 84 | 1004.1 |
| 20260505121934 | 72 | 212 | 7.0 | 13.0 | 0.00 | 0.00 | 0.00 | 84 | 1004.1 |
| 20260505121927 | 72 | 219 | 7.0 | 13.0 | 0.00 | 0.00 | 0.00 | 84 | 1004.1 |
| 20260505121832 | 72 | 209 | 5.2 | 10.4 | 0.00 | 0.00 | 0.00 | 84 | 1004.1 |
| 20260505121732 | 72 | 204 | 4.3 | 12.2 | 0.00 | 0.00 | 0.00 | 84 | 1004.1 |
| 20260505121633 | 72 | 171 | 5.2 | 12.2 | 0.00 | 0.00 | 0.00 | 84 | 1004.1 |
| 20260505121533 | 72 | 204 | 6.1 | 12.2 | 0.00 | 0.00 | 0.00 | 84 | 1004.0 |
| 20260505121435 | 72 | 243 | 7.0 | 12.2 | 0.00 | 0.00 | 0.00 | 84 | 1004.0 |
| 20260505121427 | 72 | 221 | 6.1 | 12.2 | 0.00 | 0.00 | 0.00 | 84 | 1004.0 |
| 20260505121333 | 72 | 188 | 6.1 | 12.2 | 0.00 | 0.00 | 0.00 | 84 | 1004.1 |
| 20260505121233 | 72 | 207 | 6.1 | 12.2 | 0.00 | 0.00 | 0.00 | 84 | 1004.1 |
| 20260505121132 | 72 | 169 | 5.2 | 12.2 | 0.00 | 0.00 | 0.00 | 84 | 1004.0 |
| 20260505121034 | 72 | 173 | 5.2 | 12.2 | 0.00 | 0.00 | 0.00 | 84 | 1004.1 |
| 20260505120935 | 72 | 185 | 6.1 | 12.2 | 0.00 | 0.00 | 0.00 | 84 | 1004.0 |
| 20260505120927 | 72 | 200 | 6.1 | 12.2 | 0.00 | 0.00 | 0.00 | 84 | 1004.0 |
| 20260505120831 | 72 | 155 | 6.1 | 12.2 | 0.00 | 0.00 | 0.00 | 84 | 1004.1 |
| 20260505120729 | 72 | 168 | 5.2 | 12.2 | 0.00 | 0.00 | 0.00 | 84 | 1004.1 |
| 20260505120630 | 72 | 193 | 5.2 | 12.2 | 0.00 | 0.00 | 0.00 | 84 | 1004.0 |
| 20260505120529 | 72 | 193 | 5.2 | 12.2 | 0.00 | 0.00 | 0.00 | 84 | 1003.8 |
| 20260505120430 | 72 | 195 | 6.1 | 12.2 | 0.00 | 0.00 | 0.00 | 83 | 1004.1 |
| 20260505120426 | 72 | 192 | 6.1 | 12.2 | 0.00 | 0.00 | 0.00 | 83 | 1004.1 |
| 20260505120327 | 72 | 173 | 6.1 | 12.2 | 0.00 | 0.00 | 0.00 | 83 | 1004.0 |
| 20260505120224 | 72 | 223 | 4.3 | 11.3 | 0.00 | 0.00 | 0.00 | 83 | 1004.1 |
| 20260505120123 | 72 | 210 | 3.5 | 12.2 | 0.00 | 0.00 | 0.00 | 83 | 1004.0 |
| 20260505120011 | 72 | 140 | 4.3 | 14.8 | 0.00 | 0.00 | 0.00 | 83 | 1004.0 |
| 20260505115910 | 72 | 186 | 5.2 | 14.8 | 0.00 | 0.00 | 0.00 | 83 | 1004.0 |
| 20260505115808 | 72 | 197 | 5.2 | 14.8 | 0.00 | 0.00 | 0.00 | 83 | 1003.8 |
| 20260505115707 | 72 | 159 | 6.1 | 14.8 | 0.00 | 0.00 | 0.00 | 83 | 1004.0 |
| 20260505115606 | 72 | 147 | 7.0 | 14.8 | 0.00 | 0.00 | 0.00 | 83 | 1004.0 |
| 20260505115505 | 72 | 179 | 7.0 | 14.8 | 0.00 | 0.00 | 0.00 | 83 | 1003.8 |
| 20260505115426 | 72 | 186 | 7.0 | 14.8 | 0.00 | 0.00 | 0.00 | 83 | 1003.8 |
| 20260505115405 | 72 | 220 | 6.1 | 14.8 | 0.00 | 0.00 | 0.00 | 83 | 1004.0 |
| 20260505115307 | 72 | 216 | 7.8 | 14.8 | 0.00 | 0.00 | 0.00 | 83 | 1004.0 |
| 20260505115205 | 72 | 202 | 9.6 | 14.8 | 0.00 | 0.00 | 0.00 | 83 | 1003.7 |
| 20260505115105 | 72 | 200 | 7.8 | 14.8 | 0.00 | 0.00 | 0.00 | 83 | 1003.8 |
| 20260505115007 | 72 | 166 | 7.0 | 12.2 | 0.00 | 0.00 | 0.00 | 83 | 1003.7 |
| 20260505114927 | 72 | 196 | 7.8 | 12.2 | 0.00 | 0.00 | 0.00 | 83 | 1003.7 |
| 20260505114905 | 72 | 207 | 7.0 | 12.2 | 0.00 | 0.00 | 0.00 | 83 | 1003.7 |
| 20260505114803 | 72 | 224 | 5.2 | 12.2 | 0.00 | 0.00 | 0.00 | 83 | 1003.7 |
| 20260505114656 | 72 | 206 | 4.3 | 16.5 | 0.00 | 0.00 | 0.00 | 83 | 1003.7 |
| 20260505114550 | 72 | 203 | 7.0 | 16.5 | 0.00 | 0.00 | 0.00 | 83 | 1003.7 |
| 20260505114449 | 72 | 230 | 8.7 | 16.5 | 0.00 | 0.00 | 0.00 | 83 | 1003.8 |
| 20260505114426 | 72 | 210 | 8.7 | 16.5 | 0.00 | 0.00 | 0.00 | 83 | 1003.8 |
| 20260505114347 | 72 | 148 | 8.7 | 16.5 | 0.00 | 0.00 | 0.00 | 83 | 1003.8 |
| 20260505114246 | 72 | 202 | 8.7 | 16.5 | 0.00 | 0.00 | 0.00 | 83 | 1003.7 |
| 20260505114146 | 72 | 235 | 7.8 | 16.5 | 0.00 | 0.00 | 0.00 | 83 | 1003.7 |
| 20260505114044 | 72 | 210 | 7.0 | 16.5 | 0.00 | 0.00 | 0.00 | 83 | 1003.6 |
| 20260505113942 | 72 | 213 | 7.8 | 16.5 | 0.00 | 0.00 | 0.00 | 83 | 1003.6 |
| 20260505113927 | 72 | 234 | 7.8 | 16.5 | 0.00 | 0.00 | 0.00 | 83 | 1003.6 |
| 20260505113843 | 72 | 189 | 8.7 | 16.5 | 0.00 | 0.00 | 0.00 | 83 | 1003.7 |
| 20260505113740 | 72 | 189 | 7.8 | 16.5 | 0.00 | 0.00 | 0.00 | 84 | 1003.5 |
| 20260505113635 | 72 | 204 | 7.0 | 13.0 | 0.00 | 0.00 | 0.00 | 84 | 1003.6 |
| 20260505113534 | 72 | 182 | 7.0 | 13.0 | 0.00 | 0.00 | 0.00 | 84 | 1003.5 |
| 20260505113437 | 72 | 206 | 4.3 | 13.0 | 0.00 | 0.00 | 0.00 | 84 | 1003.5 |
| 20260505113427 | 72 | 183 | 4.3 | 13.0 | 0.00 | 0.00 | 0.00 | 84 | 1003.5 |
| 20260505113335 | 72 | 152 | 6.1 | 13.0 | 0.00 | 0.00 | 0.00 | 84 | 1003.4 |
| 20260505113236 | 71 | 157 | 7.0 | 13.0 | 0.00 | 0.00 | 0.00 | 84 | 1003.6 |
| 20260505113134 | 71 | 158 | 5.2 | 9.6 | 0.00 | 0.00 | 0.00 | 84 | 1003.6 |
| 20260505113034 | 71 | 154 | 5.2 | 10.4 | 0.00 | 0.00 | 0.00 | 84 | 1003.5 |
| 20260505112930 | 71 | 193 | 5.2 | 10.4 | 0.00 | 0.00 | 0.00 | 84 | 1003.6 |
| 20260505112834 | 71 | 212 | 5.2 | 10.4 | 0.00 | 0.00 | 0.00 | 84 | 1003.7 |
| 20260505112733 | 71 | 152 | 5.2 | 11.3 | 0.00 | 0.00 | 0.00 | 84 | 1003.7 |
| 20260505112632 | 71 | 213 | 5.2 | 11.3 | 0.00 | 0.00 | 0.00 | 84 | 1003.7 |
| 20260505112532 | 72 | 188 | 4.3 | 11.3 | 0.00 | 0.00 | 0.00 | 84 | 1003.8 |
| 20260505112435 | 71 | 197 | 4.3 | 11.3 | 0.00 | 0.00 | 0.00 | 84 | 1003.7 |
| 20260505112427 | 71 | 214 | 4.3 | 11.3 | 0.00 | 0.00 | 0.00 | 84 | 1003.7 |
| 20260505112334 | 72 | 157 | 6.1 | 11.3 | 0.00 | 0.00 | 0.00 | 84 | 1003.7 |
| 20260505112233 | 72 | 162 | 7.0 | 11.3 | 0.00 | 0.00 | 0.00 | 84 | 1003.7 |
| 20260505112134 | 71 | 192 | 7.8 | 11.3 | 0.00 | 0.00 | 0.00 | 84 | 1003.7 |
| 20260505112033 | 72 | 183 | 6.1 | 11.3 | 0.00 | 0.00 | 0.00 | 84 | 1003.8 |
| 20260505111936 | 71 | 235 | 6.1 | 13.0 | 0.00 | 0.00 | 0.00 | 84 | 1003.7 |
| 20260505111928 | 71 | 197 | 6.1 | 13.0 | 0.00 | 0.00 | 0.00 | 84 | 1003.7 |
| 20260505111834 | 71 | 200 | 7.8 | 13.0 | 0.00 | 0.00 | 0.00 | 84 | 1003.6 |
| 20260505111732 | 71 | 189 | 7.8 | 13.0 | 0.00 | 0.00 | 0.00 | 84 | 1003.7 |
| 20260505111632 | 71 | 241 | 8.7 | 13.9 | 0.00 | 0.00 | 0.00 | 84 | 1003.7 |
| 20260505111534 | 71 | 188 | 5.2 | 13.9 | 0.00 | 0.00 | 0.00 | 84 | 1003.6 |
| 20260505111428 | 71 | 188 | 5.2 | 13.9 | 0.00 | 0.00 | 0.00 | 84 | 1003.6 |
| 20260505111334 | 71 | 188 | 5.2 | 13.9 | 0.00 | 0.00 | 0.00 | 84 | 1003.7 |
| 20260505111230 | 71 | 196 | 7.0 | 13.9 | 0.00 | 0.00 | 0.00 | 84 | 1003.6 |
| 20260505111131 | 71 | 252 | 7.8 | 14.8 | 0.00 | 0.00 | 0.00 | 83 | 1003.6 |
| 20260505111026 | 71 | 196 | 6.1 | 14.8 | 0.00 | 0.00 | 0.00 | 83 | 1003.4 |
| 20260505110914 | 72 | 193 | 7.0 | 14.8 | 0.00 | 0.00 | 0.00 | 83 | 1003.5 |
| 20260505110905 | 71 | 204 | 7.8 | 14.8 | 0.00 | 0.00 | 0.00 | 83 | 1003.5 |
| 20260505110814 | 71 | 200 | 7.0 | 14.8 | 0.00 | 0.00 | 0.00 | 83 | 1003.5 |
| 20260505110712 | 72 | 223 | 7.0 | 14.8 | 0.00 | 0.00 | 0.00 | 83 | 1003.5 |
| 20260505110609 | 72 | 190 | 7.8 | 14.8 | 0.00 | 0.00 | 0.00 | 83 | 1003.6 |
| 20260505110505 | 72 | 203 | 6.1 | 14.8 | 0.00 | 0.00 | 0.00 | 83 | 1003.5 |
| 20260505110406 | 72 | 182 | 6.1 | 14.8 | 0.00 | 0.00 | 0.00 | 83 | 1003.5 |
| 20260505110301 | 72 | 189 | 6.1 | 14.8 | 0.00 | 0.00 | 0.00 | 83 | 1003.4 |
| 20260505110203 | 72 | 209 | 5.2 | 13.9 | 0.00 | 0.00 | 0.00 | 83 | 1003.5 |
| 20260505102124 | 72 | 230 | 8.7 | 15.6 | 0.00 | 0.00 | 0.00 | 83 | 1003.6 |
| 20260505102026 | 72 | 193 | 7.8 | 15.6 | 0.00 | 0.00 | 0.00 | 83 | 1003.6 |
| 20260505101926 | 72 | 190 | 7.8 | 14.8 | 0.00 | 0.00 | 0.00 | 83 | 1003.7 |
| 20260505101845 | 72 | 219 | 7.8 | 14.8 | 0.00 | 0.00 | 0.00 | 83 | 1003.7 |
| 20260505101825 | 72 | 213 | 8.7 | 14.8 | 0.00 | 0.00 | 0.00 | 83 | 1003.7 |
| 20260505101724 | 72 | 182 | 7.8 | 20.9 | 0.00 | 0.00 | 0.00 | 83 | 1003.6 |
| 20260505101624 | 72 | 173 | 7.8 | 20.9 | 0.00 | 0.00 | 0.00 | 83 | 1003.5 |
| 20260505101526 | 72 | 192 | 7.8 | 20.9 | 0.00 | 0.00 | 0.00 | 83 | 1003.6 |
| 20260505101425 | 72 | 226 | 6.1 | 20.9 | 0.00 | 0.00 | 0.00 | 83 | 1003.6 |
| 20260505101342 | 72 | 202 | 6.1 | 20.9 | 0.00 | 0.00 | 0.00 | 83 | 1003.5 |
| 20260505101324 | 72 | 199 | 6.1 | 20.9 | 0.00 | 0.00 | 0.00 | 83 | 1003.5 |
| 20260505101225 | 72 | 180 | 7.8 | 20.9 | 0.00 | 0.00 | 0.00 | 83 | 1003.5 |
| 20260505101124 | 72 | 212 | 7.0 | 20.9 | 0.00 | 0.00 | 0.00 | 83 | 1003.6 |
| 20260505101024 | 72 | 182 | 7.8 | 20.9 | 0.00 | 0.00 | 0.00 | 83 | 1003.6 |
| 20260505100924 | 72 | 224 | 12.2 | 20.9 | 0.00 | 0.00 | 0.00 | 83 | 1003.6 |
| 20260505100842 | 72 | 183 | 12.2 | 20.9 | 0.00 | 0.00 | 0.00 | 83 | 1003.5 |
| 20260505100825 | 72 | 179 | 12.2 | 20.9 | 0.00 | 0.00 | 0.00 | 83 | 1003.5 |
| 20260505100726 | 72 | 178 | 10.4 | 18.2 | 0.00 | 0.00 | 0.00 | 83 | 1003.8 |
| 20260505100621 | 72 | 197 | 9.6 | 16.5 | 0.00 | 0.00 | 0.00 | 83 | 1003.5 |
| 20260505100518 | 72 | 182 | 8.7 | 14.8 | 0.00 | 0.00 | 0.00 | 83 | 1003.4 |
| 20260505100419 | 72 | 185 | 7.8 | 14.8 | 0.00 | 0.00 | 0.00 | 83 | 1003.3 |
| 20260505100342 | 72 | 189 | 8.7 | 14.8 | 0.00 | 0.00 | 0.00 | 83 | 1003.3 |
| 20260505100318 | 72 | 206 | 8.7 | 13.9 | 0.00 | 0.00 | 0.00 | 83 | 1003.5 |
| 20260505100215 | 72 | 155 | 9.6 | 15.6 | 0.00 | 0.00 | 0.00 | 83 | 1003.5 |
| 20260505100115 | 72 | 199 | 8.7 | 15.6 | 0.00 | 0.00 | 0.00 | 83 | 1003.4 |
| 20260505100013 | 72 | 176 | 8.7 | 15.6 | 0.00 | 0.00 | 0.00 | 83 | 1003.5 |
| 20260505095913 | 72 | 140 | 7.0 | 15.6 | 0.00 | 0.00 | 0.00 | 83 | 1003.4 |
| 20260505095839 | 72 | 207 | 7.0 | 15.6 | 0.00 | 0.00 | 0.00 | 83 | 1003.4 |
| 20260505095810 | 72 | 172 | 6.1 | 15.6 | 0.00 | 0.00 | 0.00 | 83 | 1003.4 |
| 20260505095711 | 72 | 145 | 7.0 | 15.6 | 0.00 | 0.00 | 0.00 | 83 | 1003.4 |
| 20260505095611 | 72 | 175 | 7.8 | 15.6 | 0.00 | 0.00 | 0.00 | 83 | 1003.6 |
| 20260505095510 | 72 | 186 | 8.7 | 15.6 | 0.00 | 0.00 | 0.00 | 83 | 1003.6 |
| 20260505095408 | 72 | 192 | 9.6 | 15.6 | 0.00 | 0.00 | 0.00 | 83 | 1003.6 |
| 20260505095341 | 72 | 189 | 8.7 | 15.6 | 0.00 | 0.00 | 0.00 | 83 | 1003.6 |
| 20260505095307 | 72 | 192 | 8.7 | 15.6 | 0.00 | 0.00 | 0.00 | 83 | 1003.5 |
| 20260505095205 | 72 | 243 | 7.8 | 14.8 | 0.00 | 0.00 | 0.00 | 83 | 1003.5 |
| 20260505095107 | 71 | 203 | 7.8 | 14.8 | 0.00 | 0.00 | 0.00 | 83 | 1003.5 |
| 20260505094959 | 72 | 172 | 6.1 | 13.0 | 0.00 | 0.00 | 0.00 | 83 | 1003.5 |
| 20260505094858 | 72 | 141 | 6.1 | 13.0 | 0.00 | 0.00 | 0.00 | 83 | 1003.6 |
| 20260505094837 | 72 | 180 | 7.0 | 13.0 | 0.00 | 0.00 | 0.00 | 83 | 1003.6 |
| 20260505094756 | 72 | 171 | 7.0 | 14.8 | 0.00 | 0.00 | 0.00 | 83 | 1003.6 |
| 20260505094750 | 72 | 200 | 5.2 | 15.6 | 0.00 | 0.00 | 0.00 | 83 | 1003.5 |
| 20260505094723 | 72 | 195 | 7.0 | 14.8 | 0.00 | 0.00 | 0.00 | 83 | 1003.6 |
| 20260505094654 | 72 | 180 | 6.1 | 15.6 | 0.00 | 0.00 | 0.00 | 83 | 1003.5 |
| 20260505094622 | 72 | 192 | 7.0 | 15.6 | 0.00 | 0.00 | 0.00 | 83 | 1003.5 |
| 20260505094550 | 72 | 212 | 6.1 | 15.6 | 0.00 | 0.00 | 0.00 | 83 | 1003.5 |
| 20260505094246 | 72 | 196 | 6.1 | 15.6 | 0.00 | 0.00 | 0.00 | 83 | 1003.5 |
| 20260505094138 | 72 | 213 | 6.1 | 15.6 | 0.00 | 0.00 | 0.00 | 83 | 1003.5 |
| 20260505094037 | 72 | 185 | 7.0 | 15.6 | 0.00 | 0.00 | 0.00 | 83 | 1003.5 |
| 20260505093933 | 72 | 168 | 8.7 | 15.6 | 0.00 | 0.00 | 0.00 | 83 | 1003.5 |
| 20260505093832 | 72 | 217 | 8.7 | 15.6 | 0.00 | 0.00 | 0.00 | 83 | 1003.6 |
| 20260505093742 | 71 | 179 | 5.2 | 13.0 | 0.00 | 0.00 | 0.00 | 83 | 1003.7 |
| 20260505093706 | 71 | 207 | 7.8 | 15.6 | 0.00 | 0.00 | 0.00 | 83 | 1003.6 |
| 20260505093638 | 71 | 183 | 7.0 | 13.0 | 0.00 | 0.00 | 0.00 | 83 | 1003.6 |
| 20260505093609 | 71 | 207 | 7.0 | 13.0 | 0.00 | 0.00 | 0.00 | 83 | 1003.6 |
| 20260505093541 | 71 | 179 | 5.2 | 13.0 | 0.00 | 0.00 | 0.00 | 83 | 1003.7 |
| 20260505093232 | 71 | 165 | 4.3 | 13.0 | 0.00 | 0.00 | 0.00 | 83 | 1003.7 |
| 20260505093132 | 71 | 175 | 6.1 | 13.0 | 0.00 | 0.00 | 0.00 | 83 | 1003.8 |
| 20260505093032 | 71 | 223 | 6.1 | 13.0 | 0.00 | 0.00 | 0.00 | 83 | 1003.8 |
| 20260505092933 | 71 | 185 | 7.0 | 15.6 | 0.00 | 0.00 | 0.00 | 83 | 1003.7 |
| 20260505092832 | 71 | 169 | 7.8 | 15.6 | 0.00 | 0.00 | 0.00 | 83 | 1003.7 |
| 20260505092731 | 71 | 197 | 8.7 | 15.6 | 0.00 | 0.00 | 0.00 | 83 | 1003.6 |
| 20260505092634 | 71 | 142 | 7.0 | 15.6 | 0.00 | 0.00 | 0.00 | 83 | 1003.7 |
| 20260505092532 | 71 | 217 | 6.1 | 16.5 | 0.00 | 0.00 | 0.00 | 83 | 1003.8 |
| 20260505092432 | 71 | 244 | 7.8 | 17.4 | 0.00 | 0.00 | 0.00 | 83 | 1003.7 |
| 20260505092331 | 71 | 200 | 7.8 | 17.4 | 0.00 | 0.00 | 0.00 | 83 | 1003.7 |
| 20260505092233 | 71 | 195 | 7.0 | 17.4 | 0.00 | 0.00 | 0.00 | 83 | 1003.8 |
| 20260505092131 | 71 | 190 | 8.7 | 17.4 | 0.00 | 0.00 | 0.00 | 83 | 1003.8 |
| 20260505092030 | 71 | 195 | 9.6 | 17.4 | 0.00 | 0.00 | 0.00 | 83 | 1004.0 |
| 20260505091927 | 71 | 207 | 7.8 | 17.4 | 0.00 | 0.00 | 0.00 | 83 | 1004.1 |
| 20260505091834 | 71 | 203 | 7.0 | 17.4 | 0.00 | 0.00 | 0.00 | 83 | 1004.1 |
| 20260505091827 | 71 | 190 | 7.0 | 17.4 | 0.00 | 0.00 | 0.00 | 83 | 1004.1 |
| 20260505091724 | 71 | 178 | 8.7 | 17.4 | 0.00 | 0.00 | 0.00 | 83 | 1004.1 |
| 20260505091624 | 71 | 216 | 10.4 | 17.4 | 0.00 | 0.00 | 0.00 | 83 | 1004.0 |
| 20260505091522 | 71 | 175 | 9.6 | 17.4 | 0.00 | 0.00 | 0.00 | 83 | 1004.0 |
| 20260505091423 | 71 | 171 | 8.7 | 14.8 | 0.00 | 0.00 | 0.00 | 83 | 1004.1 |
| 20260505091331 | 71 | 212 | 9.6 | 14.8 | 0.00 | 0.00 | 0.00 | 83 | 1004.0 |
| 20260505091324 | 71 | 164 | 9.6 | 14.8 | 0.00 | 0.00 | 0.00 | 83 | 1004.0 |
| 20260505091224 | 71 | 210 | 10.4 | 14.8 | 0.00 | 0.00 | 0.00 | 83 | 1004.0 |
| 20260505091123 | 71 | 214 | 11.3 | 14.8 | 0.00 | 0.00 | 0.00 | 83 | 1004.1 |
| 20260505091022 | 71 | 223 | 9.6 | 14.8 | 0.00 | 0.00 | 0.00 | 83 | 1004.1 |
| 20260505090923 | 71 | 226 | 8.7 | 14.8 | 0.00 | 0.00 | 0.00 | 83 | 1004.1 |
| 20260505090836 | 71 | 196 | 9.6 | 14.8 | 0.00 | 0.00 | 0.00 | 83 | 1004.1 |
| 20260505090824 | 71 | 207 | 8.7 | 14.8 | 0.00 | 0.00 | 0.00 | 83 | 1004.1 |
| 20260505090723 | 71 | 206 | 7.8 | 14.8 | 0.00 | 0.00 | 0.00 | 83 | 1004.1 |
| 20260505090622 | 71 | 165 | 9.6 | 14.8 | 0.00 | 0.00 | 0.00 | 83 | 1004.1 |
| 20260505090524 | 71 | 199 | 9.6 | 14.8 | 0.00 | 0.00 | 0.00 | 83 | 1004.0 |
| 20260505090423 | 71 | 209 | 8.7 | 14.8 | 0.00 | 0.00 | 0.00 | 83 | 1004.0 |
| 20260505090332 | 71 | 219 | 7.8 | 14.8 | 0.00 | 0.00 | 0.00 | 83 | 1004.0 |
| 20260505090323 | 71 | 166 | 7.8 | 14.8 | 0.00 | 0.00 | 0.00 | 83 | 1004.0 |
| 20260505090223 | 71 | 199 | 7.8 | 14.8 | 0.00 | 0.00 | 0.00 | 83 | 1004.0 |
| 20260505090122 | 71 | 179 | 7.8 | 14.8 | 0.00 | 0.00 | 0.00 | 83 | 1004.0 |
| 20260505090023 | 71 | 221 | 8.7 | 14.8 | 0.00 | 0.00 | 0.00 | 83 | 1004.1 |
| 20260505085923 | 71 | 196 | 8.7 | 14.8 | 0.00 | 0.00 | 0.00 | 83 | 1004.1 |
| 20260505085834 | 71 | 193 | 8.7 | 13.9 | 0.00 | 0.00 | 0.00 | 83 | 1003.8 |
| 20260505085823 | 71 | 149 | 8.7 | 13.9 | 0.00 | 0.00 | 0.00 | 83 | 1003.8 |
| 20260505085748 | 71 | 241 | 7.0 | 14.8 | 0.00 | 0.00 | 0.00 | 83 | 1004.1 |
| 20260505085734 | 71 | 192 | 7.8 | 13.9 | 0.00 | 0.00 | 0.00 | 83 | 1004.1 |
| 20260505085704 | 71 | 228 | 6.1 | 13.9 | 0.00 | 0.00 | 0.00 | 83 | 1004.1 |
| 20260505085634 | 71 | 200 | 7.0 | 14.8 | 0.00 | 0.00 | 0.00 | 83 | 1004.1 |
| 20260505085605 | 71 | 185 | 7.0 | 14.8 | 0.00 | 0.00 | 0.00 | 83 | 1004.0 |
| 20260505085323 | 71 | 207 | 6.1 | 14.8 | 0.00 | 0.00 | 0.00 | 83 | 1004.1 |
| 20260505085223 | 71 | 151 | 7.0 | 14.8 | 0.00 | 0.00 | 0.00 | 83 | 1004.0 |
| 20260505085123 | 71 | 206 | 6.1 | 14.8 | 0.00 | 0.00 | 0.00 | 83 | 1004.1 |
| 20260505085015 | 71 | 209 | 7.0 | 14.8 | 0.00 | 0.00 | 0.00 | 83 | 1004.0 |
| 20260505084910 | 71 | 188 | 7.8 | 14.8 | 0.00 | 0.00 | 0.00 | 83 | 1004.1 |
| 20260505084830 | 71 | 166 | 7.0 | 14.8 | 0.00 | 0.00 | 0.00 | 83 | 1004.1 |
| 20260505084809 | 71 | 185 | 7.0 | 14.8 | 0.00 | 0.00 | 0.00 | 83 | 1004.0 |
| 20260505084707 | 71 | 188 | 8.7 | 14.8 | 0.00 | 0.00 | 0.00 | 83 | 1004.0 |
| 20260505084607 | 71 | 178 | 8.7 | 14.8 | 0.00 | 0.00 | 0.00 | 83 | 1004.0 |
| 20260505084504 | 71 | 203 | 7.0 | 13.0 | 0.00 | 0.00 | 0.00 | 82 | 1004.0 |
| 20260505084403 | 71 | 197 | 7.8 | 13.0 | 0.00 | 0.00 | 0.00 | 82 | 1003.8 |
| 20260505084331 | 71 | 202 | 7.8 | 13.0 | 0.00 | 0.00 | 0.00 | 82 | 1003.8 |
| 20260505084247 | 71 | 189 | 7.0 | 13.9 | 0.00 | 0.00 | 0.00 | 82 | 1004.0 |
| 20260505084147 | 72 | 182 | 7.8 | 13.9 | 0.00 | 0.00 | 0.00 | 82 | 1004.0 |
| 20260505084046 | 72 | 182 | 7.8 | 13.9 | 0.00 | 0.00 | 0.00 | 82 | 1003.7 |
| 20260505083945 | 72 | 200 | 7.0 | 13.9 | 0.00 | 0.00 | 0.00 | 82 | 1003.8 |
| 20260505083843 | 72 | 178 | 7.0 | 14.8 | 0.00 | 0.00 | 0.00 | 82 | 1003.8 |
| 20260505083830 | 72 | 195 | 7.0 | 14.8 | 0.00 | 0.00 | 0.00 | 82 | 1003.8 |
| 20260505083740 | 72 | 195 | 7.0 | 14.8 | 0.00 | 0.00 | 0.00 | 82 | 1003.8 |
| 20260505083640 | 72 | 169 | 6.1 | 14.8 | 0.00 | 0.00 | 0.00 | 82 | 1003.8 |
| 20260505083539 | 72 | 186 | 6.1 | 14.8 | 0.00 | 0.00 | 0.00 | 82 | 1003.7 |
| 20260505083437 | 72 | 196 | 7.8 | 14.8 | 0.00 | 0.00 | 0.00 | 82 | 1003.8 |
| 20260505083331 | 72 | 220 | 8.7 | 14.8 | 0.00 | 0.00 | 0.00 | 82 | 1003.8 |
| 20260505083246 | 72 | 138 | 7.0 | 12.2 | 0.00 | 0.00 | 0.00 | 82 | 1004.0 |
| 20260505083237 | 72 | 193 | 7.8 | 14.8 | 0.00 | 0.00 | 0.00 | 82 | 1003.8 |
| 20260505083209 | 72 | 214 | 7.0 | 14.8 | 0.00 | 0.00 | 0.00 | 82 | 1003.8 |
| 20260505083140 | 72 | 226 | 7.8 | 14.8 | 0.00 | 0.00 | 0.00 | 82 | 1003.8 |
| 20260505083108 | 72 | 173 | 7.8 | 14.8 | 0.00 | 0.00 | 0.00 | 82 | 1004.0 |
| 20260505083038 | 72 | 138 | 7.0 | 12.2 | 0.00 | 0.00 | 0.00 | 82 | 1004.0 |
| 20260505082743 | 72 | 200 | 6.1 | 15.6 | 0.00 | 0.00 | 0.00 | 81 | 1004.1 |
| 20260505082732 | 72 | 244 | 7.0 | 15.6 | 0.00 | 0.00 | 0.00 | 81 | 1004.0 |
| 20260505082703 | 72 | 197 | 7.8 | 15.6 | 0.00 | 0.00 | 0.00 | 81 | 1004.0 |
| 20260505082633 | 72 | 197 | 7.0 | 15.6 | 0.00 | 0.00 | 0.00 | 81 | 1004.0 |
| 20260505082603 | 72 | 166 | 6.1 | 15.6 | 0.00 | 0.00 | 0.00 | 81 | 1003.8 |
| 20260505082532 | 72 | 200 | 6.1 | 15.6 | 0.00 | 0.00 | 0.00 | 81 | 1004.1 |
| 20260505082221 | 72 | 195 | 7.8 | 15.6 | 0.00 | 0.00 | 0.00 | 81 | 1004.0 |
| 20260505082118 | 72 | 190 | 7.8 | 15.6 | 0.00 | 0.00 | 0.00 | 81 | 1004.0 |
| 20260505082018 | 72 | 190 | 7.8 | 15.6 | 0.00 | 0.00 | 0.00 | 81 | 1004.1 |
| 20260505081915 | 72 | 192 | 9.6 | 15.6 | 0.00 | 0.00 | 0.00 | 81 | 1004.0 |
| 20260505081824 | 72 | 203 | 8.7 | 15.6 | 0.00 | 0.00 | 0.00 | 81 | 1004.0 |
| 20260505081815 | 72 | 197 | 8.7 | 15.6 | 0.00 | 0.00 | 0.00 | 81 | 1004.0 |
| 20260505081730 | 72 | 195 | 9.6 | 15.6 | 0.00 | 0.00 | 0.00 | 81 | 1004.0 |
| 20260505081719 | 72 | 195 | 7.8 | 15.6 | 0.00 | 0.00 | 0.00 | 81 | 1004.0 |
| 20260505081649 | 72 | 192 | 7.8 | 15.6 | 0.00 | 0.00 | 0.00 | 81 | 1004.0 |
| 20260505081618 | 72 | 197 | 7.8 | 15.6 | 0.00 | 0.00 | 0.00 | 81 | 1004.0 |
| 20260505081546 | 72 | 186 | 8.7 | 15.6 | 0.00 | 0.00 | 0.00 | 81 | 1004.0 |
| 20260505081306 | 72 | 193 | 9.6 | 15.6 | 0.00 | 0.00 | 0.00 | 81 | 1004.0 |
| 20260505081206 | 72 | 203 | 8.7 | 15.6 | 0.00 | 0.00 | 0.00 | 81 | 1004.0 |
| 20260505081103 | 72 | 197 | 7.8 | 14.8 | 0.00 | 0.00 | 0.00 | 81 | 1004.1 |
| 20260505081004 | 72 | 228 | 7.8 | 14.8 | 0.00 | 0.00 | 0.00 | 81 | 1004.0 |
| 20260505080904 | 72 | 185 | 6.1 | 14.8 | 0.00 | 0.00 | 0.00 | 81 | 1004.1 |
| 20260505080841 | 72 | 182 | 7.0 | 14.8 | 0.00 | 0.00 | 0.00 | 81 | 1004.1 |
| 20260505080831 | 72 | 195 | 7.0 | 15.6 | 0.00 | 0.00 | 0.00 | 81 | 1004.1 |
| 20260505080734 | 72 | 220 | 7.8 | 18.2 | 0.00 | 0.00 | 0.00 | 80 | 1004.2 |
| 20260505080717 | 72 | 233 | 7.8 | 18.2 | 0.00 | 0.00 | 0.00 | 80 | 1004.1 |
| 20260505080646 | 72 | 234 | 7.0 | 18.2 | 0.00 | 0.00 | 0.00 | 80 | 1004.1 |
| 20260505080616 | 72 | 144 | 7.8 | 18.2 | 0.00 | 0.00 | 0.00 | 80 | 1004.2 |
| 20260505080545 | 72 | 178 | 8.7 | 18.2 | 0.00 | 0.00 | 0.00 | 80 | 1004.2 |
| 20260505080300 | 72 | 189 | 7.8 | 18.2 | 0.00 | 0.00 | 0.00 | 80 | 1004.2 |
| 20260505080217 | 72 | 227 | 10.4 | 18.2 | 0.00 | 0.00 | 0.00 | 80 | 1004.2 |
| 20260505080206 | 72 | 192 | 7.8 | 18.2 | 0.00 | 0.00 | 0.00 | 80 | 1004.2 |
| 20260505080136 | 72 | 173 | 8.7 | 18.2 | 0.00 | 0.00 | 0.00 | 80 | 1004.2 |
| 20260505080107 | 72 | 155 | 10.4 | 18.2 | 0.00 | 0.00 | 0.00 | 80 | 1004.0 |
| 20260505080036 | 72 | 213 | 10.4 | 18.2 | 0.00 | 0.00 | 0.00 | 80 | 1004.0 |
| 20260505075743 | 72 | 157 | 10.4 | 18.2 | 0.00 | 0.00 | 0.00 | 80 | 1004.2 |
| 20260505075638 | 72 | 182 | 10.4 | 14.8 | 0.00 | 0.00 | 0.00 | 80 | 1004.2 |
| 20260505075537 | 72 | 165 | 7.8 | 14.8 | 0.00 | 0.00 | 0.00 | 80 | 1004.2 |
| 20260505075433 | 72 | 159 | 6.1 | 13.9 | 0.00 | 0.00 | 0.00 | 80 | 1004.2 |
| 20260505075330 | 72 | 171 | 7.8 | 13.9 | 0.00 | 0.00 | 0.00 | 80 | 1004.2 |
| 20260505075314 | 72 | 217 | 7.8 | 16.5 | 0.00 | 0.00 | 0.00 | 80 | 1004.2 |
| 20260505075231 | 72 | 248 | 8.7 | 16.5 | 0.00 | 0.00 | 0.00 | 80 | 1004.2 |
| 20260505075131 | 72 | 182 | 9.6 | 16.5 | 0.00 | 0.00 | 0.00 | 80 | 1004.2 |
| 20260505075032 | 72 | 151 | 9.6 | 16.5 | 0.00 | 0.00 | 0.00 | 80 | 1004.3 |
| 20260505074931 | 72 | 180 | 7.8 | 16.5 | 0.00 | 0.00 | 0.00 | 80 | 1004.2 |
| 20260505074831 | 72 | 209 | 6.1 | 16.5 | 0.00 | 0.00 | 0.00 | 80 | 1004.2 |
| 20260505074814 | 72 | 189 | 7.0 | 16.5 | 0.00 | 0.00 | 0.00 | 80 | 1004.3 |
| 20260505074732 | 72 | 202 | 6.1 | 16.5 | 0.00 | 0.00 | 0.00 | 80 | 1004.3 |
| 20260505074633 | 73 | 203 | 8.7 | 19.1 | 0.00 | 0.00 | 0.00 | 80 | 1004.3 |
| 20260505074532 | 72 | 221 | 8.7 | 19.1 | 0.00 | 0.00 | 0.00 | 80 | 1004.3 |
| 20260505074430 | 73 | 185 | 9.6 | 19.1 | 0.00 | 0.00 | 0.00 | 80 | 1004.3 |
| 20260505074332 | 73 | 186 | 7.8 | 19.1 | 0.00 | 0.00 | 0.00 | 80 | 1004.2 |
| 20260505074313 | 72 | 193 | 7.0 | 19.1 | 0.00 | 0.00 | 0.00 | 80 | 1004.3 |
| 20260505074232 | 73 | 183 | 7.0 | 19.1 | 0.00 | 0.00 | 0.00 | 80 | 1004.3 |
| 20260505074131 | 73 | 195 | 7.0 | 19.1 | 0.00 | 0.00 | 0.00 | 79 | 1004.3 |
| 20260505074030 | 73 | 179 | 7.8 | 19.1 | 0.00 | 0.00 | 0.00 | 79 | 1004.3 |
| 20260505073929 | 73 | 219 | 8.7 | 19.1 | 0.00 | 0.00 | 0.00 | 79 | 1004.3 |
| 20260505073823 | 73 | 137 | 11.3 | 19.1 | 0.00 | 0.00 | 0.00 | 79 | 1004.3 |
| 20260505073810 | 73 | 172 | 11.3 | 19.1 | 0.00 | 0.00 | 0.00 | 79 | 1004.4 |
| 20260505073723 | 73 | 168 | 11.3 | 19.1 | 0.00 | 0.00 | 0.00 | 79 | 1004.4 |
| 20260505073623 | 73 | 195 | 9.6 | 13.9 | 0.00 | 0.00 | 0.00 | 79 | 1004.5 |
| 20260505073522 | 73 | 178 | 9.6 | 15.6 | 0.00 | 0.00 | 0.00 | 79 | 1004.4 |
| 20260505073421 | 73 | 180 | 7.8 | 15.6 | 0.00 | 0.00 | 0.00 | 79 | 1004.4 |
| 20260505073321 | 73 | 176 | 7.8 | 15.6 | 0.00 | 0.00 | 0.00 | 79 | 1004.4 |
| 20260505073308 | 73 | 202 | 7.8 | 15.6 | 0.00 | 0.00 | 0.00 | 79 | 1004.5 |
| 20260505073221 | 73 | 185 | 7.0 | 16.5 | 0.00 | 0.00 | 0.00 | 79 | 1004.5 |
| 20260505073122 | 73 | 192 | 6.1 | 16.5 | 0.00 | 0.00 | 0.00 | 79 | 1004.4 |
| 20260505073023 | 73 | 202 | 7.0 | 16.5 | 0.00 | 0.00 | 0.00 | 79 | 1004.5 |
| 20260505072923 | 73 | 164 | 7.8 | 16.5 | 0.00 | 0.00 | 0.00 | 79 | 1004.5 |
| 20260505072822 | 73 | 171 | 9.6 | 16.5 | 0.00 | 0.00 | 0.00 | 79 | 1004.5 |
| 20260505072807 | 73 | 212 | 9.6 | 16.5 | 0.00 | 0.00 | 0.00 | 79 | 1004.6 |
| 20260505072722 | 73 | 223 | 11.3 | 16.5 | 0.00 | 0.00 | 0.00 | 79 | 1004.6 |
| 20260505072621 | 73 | 166 | 11.3 | 16.5 | 0.00 | 0.00 | 0.00 | 79 | 1004.6 |
| 20260505072521 | 73 | 206 | 9.6 | 16.5 | 0.00 | 0.00 | 0.00 | 79 | 1004.6 |
| 20260505072421 | 73 | 202 | 8.7 | 16.5 | 0.00 | 0.00 | 0.00 | 79 | 1004.7 |
| 20260505072323 | 73 | 213 | 9.6 | 16.5 | 0.00 | 0.00 | 0.00 | 78 | 1004.7 |
| 20260505072309 | 73 | 228 | 9.6 | 16.5 | 0.00 | 0.00 | 0.00 | 78 | 1004.7 |
| 20260505072221 | 73 | 180 | 9.6 | 15.6 | 0.00 | 0.00 | 0.00 | 78 | 1004.7 |
| 20260505072122 | 73 | 228 | 8.7 | 15.6 | 0.00 | 0.00 | 0.00 | 78 | 1004.7 |
| 20260505072020 | 73 | 161 | 8.7 | 13.9 | 0.00 | 0.00 | 0.00 | 78 | 1004.7 |
| 20260505071922 | 73 | 212 | 9.6 | 14.8 | 0.00 | 0.00 | 0.00 | 78 | 1004.7 |
| 20260505071821 | 73 | 188 | 8.7 | 14.8 | 0.00 | 0.00 | 0.00 | 78 | 1004.7 |
| 20260505071807 | 73 | 175 | 7.8 | 14.8 | 0.00 | 0.00 | 0.00 | 78 | 1004.6 |
| 20260505071724 | 73 | 210 | 8.7 | 14.8 | 0.00 | 0.00 | 0.00 | 78 | 1004.6 |
| 20260505071718 | 73 | 182 | 7.0 | 19.1 | 0.00 | 0.00 | 0.00 | 78 | 1004.8 |
| 20260505071649 | 73 | 228 | 8.7 | 14.8 | 0.00 | 0.00 | 0.00 | 78 | 1004.8 |
| 20260505071619 | 73 | 140 | 9.6 | 14.8 | 0.00 | 0.00 | 0.00 | 78 | 1004.8 |
| 20260505071549 | 73 | 178 | 7.8 | 19.1 | 0.00 | 0.00 | 0.00 | 78 | 1004.7 |
| 20260505071521 | 73 | 202 | 7.0 | 19.1 | 0.00 | 0.00 | 0.00 | 78 | 1004.8 |
| 20260505071230 | 73 | 206 | 7.8 | 19.1 | 0.00 | 0.00 | 0.00 | 77 | 1004.9 |
| 20260505071221 | 73 | 230 | 7.8 | 19.1 | 0.00 | 0.00 | 0.00 | 78 | 1004.7 |
| 20260505071149 | 73 | 204 | 7.8 | 19.1 | 0.00 | 0.00 | 0.00 | 78 | 1004.8 |
| 20260505071117 | 73 | 209 | 7.0 | 19.1 | 0.00 | 0.00 | 0.00 | 78 | 1004.8 |
| 20260505071048 | 73 | 193 | 6.1 | 19.1 | 0.00 | 0.00 | 0.00 | 77 | 1004.8 |
| 20260505071017 | 73 | 196 | 7.8 | 19.1 | 0.00 | 0.00 | 0.00 | 77 | 1004.9 |
| 20260505070706 | 73 | 203 | 9.6 | 19.1 | 0.00 | 0.00 | 0.00 | 78 | 1004.9 |
| 20260505070605 | 73 | 188 | 11.3 | 19.1 | 0.00 | 0.00 | 0.00 | 78 | 1004.8 |
| 20260505070507 | 73 | 219 | 11.3 | 19.1 | 0.00 | 0.00 | 0.00 | 78 | 1004.9 |
| 20260505070406 | 73 | 171 | 8.7 | 15.6 | 0.00 | 0.00 | 0.00 | 77 | 1004.8 |
| 20260505070306 | 73 | 203 | 6.1 | 15.6 | 0.00 | 0.00 | 0.00 | 77 | 1004.8 |
| 20260505070206 | 73 | 137 | 6.1 | 15.6 | 0.00 | 0.00 | 0.00 | 77 | 1004.9 |
| 20260505070131 | 73 | 162 | 7.0 | 14.8 | 0.00 | 0.00 | 0.00 | 77 | 1005.1 |
| 20260505070123 | 73 | 209 | 7.8 | 16.5 | 0.00 | 0.00 | 0.00 | 77 | 1005.2 |
| 20260505070107 | 73 | 162 | 7.8 | 15.6 | 0.00 | 0.00 | 0.00 | 77 | 1004.8 |
| 20260505070037 | 73 | 206 | 8.7 | 15.6 | 0.00 | 0.00 | 0.00 | 77 | 1004.9 |
| 20260505070007 | 73 | 164 | 10.4 | 15.6 | 0.00 | 0.00 | 0.00 | 77 | 1004.8 |
| 20260505065944 | 73 | 224 | 10.4 | 15.6 | 0.00 | 0.00 | 0.00 | 77 | 1004.8 |
| 20260505065929 | 73 | 212 | 10.4 | 15.6 | 0.00 | 0.00 | 0.00 | 77 | 1004.8 |
| 20260505065651 | 73 | 188 | 8.7 | 14.8 | 0.00 | 0.00 | 0.00 | 77 | 1004.9 |
| 20260505065623 | 73 | 165 | 7.0 | 14.8 | 0.00 | 0.00 | 0.00 | 77 | 1005.0 |
| 20260505065553 | 73 | 220 | 6.1 | 14.8 | 0.00 | 0.00 | 0.00 | 77 | 1005.0 |
| 20260505065528 | 73 | 210 | 7.8 | 14.8 | 0.00 | 0.00 | 0.00 | 77 | 1005.0 |
| 20260505065509 | 73 | 175 | 8.7 | 14.8 | 0.00 | 0.00 | 0.00 | 77 | 1005.0 |
| 20260505065253 | 73 | 206 | 7.0 | 11.3 | 0.00 | 0.00 | 0.00 | 76 | 1005.3 |
| 20260505065241 | 73 | 200 | 8.7 | 14.8 | 0.00 | 0.00 | 0.00 | 77 | 1005.0 |
| 20260505065210 | 73 | 186 | 7.8 | 13.9 | 0.00 | 0.00 | 0.00 | 77 | 1005.1 |
| 20260505065140 | 73 | 193 | 7.8 | 13.9 | 0.00 | 0.00 | 0.00 | 77 | 1005.0 |
| 20260505065111 | 73 | 165 | 7.0 | 13.9 | 0.00 | 0.00 | 0.00 | 77 | 1005.1 |
| 20260505065041 | 73 | 142 | 8.7 | 13.9 | 0.00 | 0.00 | 0.00 | 77 | 1005.0 |
| 20260505065022 | 73 | 199 | 7.8 | 13.9 | 0.00 | 0.00 | 0.00 | 77 | 1005.1 |
| 20260505065006 | 73 | 207 | 7.8 | 13.9 | 0.00 | 0.00 | 0.00 | 77 | 1005.1 |
| 20260505064937 | 73 | 195 | 5.2 | 13.9 | 0.00 | 0.00 | 0.00 | 77 | 1005.1 |
| 20260505064908 | 73 | 175 | 5.2 | 14.8 | 0.00 | 0.00 | 0.00 | 77 | 1005.0 |
| 20260505064841 | 73 | 173 | 7.8 | 14.8 | 0.00 | 0.00 | 0.00 | 77 | 1005.1 |
| 20260505064812 | 73 | 189 | 8.7 | 14.8 | 0.00 | 0.00 | 0.00 | 77 | 1005.1 |
| 20260505064755 | 73 | 217 | 8.7 | 14.8 | 0.00 | 0.00 | 0.00 | 77 | 1005.1 |
| 20260505064739 | 73 | 176 | 8.7 | 14.8 | 0.00 | 0.00 | 0.00 | 77 | 1005.1 |
| 20260505064709 | 73 | 186 | 7.0 | 14.8 | 0.00 | 0.00 | 0.00 | 77 | 1005.2 |
| 20260505064638 | 73 | 192 | 7.0 | 14.8 | 0.00 | 0.00 | 0.00 | 77 | 1005.1 |
| 20260505064608 | 73 | 204 | 7.0 | 14.8 | 0.00 | 0.00 | 0.00 | 77 | 1005.2 |
| 20260505064539 | 73 | 166 | 5.2 | 14.8 | 0.00 | 0.00 | 0.00 | 77 | 1005.2 |
| 20260505064258 | 73 | 206 | 7.0 | 14.8 | 0.00 | 0.00 | 0.00 | 77 | 1005.1 |
| 20260505064229 | 73 | 169 | 6.1 | 14.8 | 0.00 | 0.00 | 0.00 | 77 | 1005.2 |
| 20260505064159 | 73 | 234 | 5.2 | 13.9 | 0.00 | 0.00 | 0.00 | 77 | 1005.2 |
| 20260505064130 | 73 | 202 | 5.2 | 16.5 | 0.00 | 0.00 | 0.00 | 77 | 1005.2 |
| 20260505064100 | 73 | 204 | 6.1 | 16.5 | 0.00 | 0.00 | 0.00 | 76 | 1005.2 |
| 20260505064042 | 73 | 178 | 7.0 | 16.5 | 0.00 | 0.00 | 0.00 | 77 | 1005.3 |
| 20260505064026 | 73 | 200 | 7.0 | 16.5 | 0.00 | 0.00 | 0.00 | 77 | 1005.3 |
| 20260505063956 | 73 | 193 | 7.0 | 16.5 | 0.00 | 0.00 | 0.00 | 77 | 1005.2 |
| 20260505063927 | 73 | 182 | 7.0 | 16.5 | 0.00 | 0.00 | 0.00 | 77 | 1005.2 |
| 20260505063857 | 73 | 185 | 6.1 | 16.5 | 0.00 | 0.00 | 0.00 | 77 | 1005.2 |
| 20260505063827 | 73 | 180 | 7.0 | 16.5 | 0.00 | 0.00 | 0.00 | 77 | 1005.3 |
| 20260505063548 | 73 | 190 | 8.7 | 16.5 | 0.00 | 0.00 | 0.00 | 77 | 1005.2 |
| 20260505063517 | 73 | 212 | 9.6 | 16.5 | 0.00 | 0.00 | 0.00 | 77 | 1005.2 |
| 20260505063448 | 73 | 173 | 8.7 | 16.5 | 0.00 | 0.00 | 0.00 | 77 | 1005.3 |
| 20260505063418 | 73 | 220 | 7.0 | 11.3 | 0.00 | 0.00 | 0.00 | 77 | 1005.2 |
| 20260505063350 | 73 | 140 | 5.2 | 11.3 | 0.00 | 0.00 | 0.00 | 77 | 1005.3 |
| 20260505063335 | 73 | 183 | 6.1 | 11.3 | 0.00 | 0.00 | 0.00 | 77 | 1005.2 |
| 20260505063318 | 73 | 197 | 6.1 | 11.3 | 0.00 | 0.00 | 0.00 | 77 | 1005.2 |
| 20260505063247 | 73 | 182 | 7.8 | 12.2 | 0.00 | 0.00 | 0.00 | 77 | 1005.2 |
| 20260505063222 | 73 | 190 | 7.0 | 12.2 | 0.00 | 0.00 | 0.00 | 77 | 1005.2 |
| 20260505063153 | 73 | 185 | 6.1 | 12.2 | 0.00 | 0.00 | 0.00 | 77 | 1005.3 |
| 20260505063123 | 73 | 157 | 6.1 | 13.9 | 0.00 | 0.00 | 0.00 | 77 | 1005.3 |
| 20260505063041 | 73 | 188 | 6.1 | 13.9 | 0.00 | 0.00 | 0.00 | 77 | 1005.3 |
| 20260505063016 | 73 | 195 | 7.0 | 13.9 | 0.00 | 0.00 | 0.00 | 77 | 1005.2 |
| 20260505062917 | 73 | 159 | 6.1 | 13.9 | 0.00 | 0.00 | 0.00 | 77 | 1005.3 |
| 20260505062850 | 73 | 168 | 5.2 | 13.9 | 0.00 | 0.00 | 0.00 | 76 | 1005.3 |
| 20260505062822 | 73 | 144 | 5.2 | 13.9 | 0.00 | 0.00 | 0.00 | 76 | 1005.4 |
| 20260505062752 | 73 | 188 | 6.1 | 13.9 | 0.00 | 0.00 | 0.00 | 76 | 1005.3 |
| 20260505062742 | 73 | 178 | 7.0 | 13.9 | 0.00 | 0.00 | 0.00 | 76 | 1005.3 |
| 20260505062720 | 73 | 159 | 6.1 | 13.9 | 0.00 | 0.00 | 0.00 | 76 | 1005.3 |
| 20260505062650 | 73 | 214 | 6.1 | 13.9 | 0.00 | 0.00 | 0.00 | 76 | 1005.3 |
| 20260505062620 | 73 | 176 | 7.0 | 13.9 | 0.00 | 0.00 | 0.00 | 76 | 1005.3 |
| 20260505062549 | 73 | 209 | 7.8 | 11.3 | 0.00 | 0.00 | 0.00 | 76 | 1005.2 |
| 20260505062518 | 73 | 183 | 7.0 | 11.3 | 0.00 | 0.00 | 0.00 | 76 | 1005.3 |
| 20260505060753 | 73 | 206 | 7.0 | 11.3 | 0.00 | 0.00 | 0.00 | 76 | 1005.3 |
| 20260505060652 | 73 | 212 | 4.3 | 10.4 | 0.00 | 0.00 | 0.00 | 76 | 1005.2 |
| 20260505060550 | 73 | 197 | 4.3 | 11.3 | 0.00 | 0.00 | 0.00 | 76 | 1005.2 |
| 20260505060446 | 73 | 159 | 5.2 | 11.3 | 0.00 | 0.00 | 0.00 | 76 | 1005.3 |
| 20260505060345 | 73 | 213 | 7.0 | 11.3 | 0.00 | 0.00 | 0.00 | 76 | 1005.3 |
| 20260505060257 | 73 | 175 | 6.1 | 18.2 | 0.00 | 0.00 | 0.00 | 76 | 1005.3 |
| 20260505060245 | 73 | 186 | 6.1 | 18.2 | 0.00 | 0.00 | 0.00 | 76 | 1005.3 |
| 20260505060145 | 73 | 244 | 5.2 | 18.2 | 0.00 | 0.00 | 0.00 | 76 | 1005.2 |
| 20260505060041 | 73 | 166 | 5.2 | 18.2 | 0.00 | 0.00 | 0.00 | 76 | 1005.3 |
| 20260505055938 | 73 | 137 | 4.3 | 18.2 | 0.00 | 0.00 | 0.00 | 76 | 1005.2 |
| 20260505055837 | 73 | 154 | 5.2 | 18.2 | 0.00 | 0.00 | 0.00 | 76 | 1005.2 |
| 20260505055755 | 73 | 118 | 7.0 | 18.2 | 0.00 | 0.00 | 0.00 | 76 | 1005.2 |
| 20260505055733 | 73 | 203 | 7.0 | 18.2 | 0.00 | 0.00 | 0.00 | 76 | 1005.2 |
| 20260505055634 | 73 | 185 | 7.8 | 18.2 | 0.00 | 0.00 | 0.00 | 76 | 1005.2 |
| 20260505055535 | 73 | 213 | 7.8 | 18.2 | 0.00 | 0.00 | 0.00 | 76 | 1005.2 |
| 20260505055435 | 73 | 190 | 8.7 | 18.2 | 0.00 | 0.00 | 0.00 | 75 | 1005.2 |
| 20260505055334 | 73 | 209 | 7.0 | 13.9 | 0.00 | 0.00 | 0.00 | 75 | 1005.1 |
| 20260505055255 | 73 | 168 | 5.2 | 13.9 | 0.00 | 0.00 | 0.00 | 75 | 1005.1 |
| 20260505055236 | 73 | 202 | 5.2 | 13.9 | 0.00 | 0.00 | 0.00 | 75 | 1005.1 |
| 20260505055159 | 73 | 164 | 5.2 | 14.8 | 0.00 | 0.00 | 0.00 | 75 | 1005.2 |
| 20260505055145 | 73 | 172 | 5.2 | 13.9 | 0.00 | 0.00 | 0.00 | 75 | 1005.0 |
| 20260505055118 | 73 | 200 | 6.1 | 14.8 | 0.00 | 0.00 | 0.00 | 75 | 1005.0 |
| 20260505055048 | 73 | 202 | 7.0 | 14.8 | 0.00 | 0.00 | 0.00 | 75 | 1005.2 |
| 20260505055021 | 73 | 145 | 6.1 | 14.8 | 0.00 | 0.00 | 0.00 | 75 | 1005.1 |
| 20260505054735 | 73 | 147 | 4.3 | 14.8 | 0.00 | 0.00 | 0.00 | 75 | 1005.2 |
| 20260505054635 | 73 | 186 | 4.3 | 14.8 | 0.00 | 0.00 | 0.00 | 75 | 1005.3 |
| 20260505054534 | 73 | 165 | 4.3 | 14.8 | 0.00 | 0.00 | 0.00 | 75 | 1005.3 |
| 20260505054435 | 73 | 144 | 6.1 | 16.5 | 0.00 | 0.00 | 0.00 | 75 | 1005.3 |
| 20260505054331 | 73 | 202 | 7.0 | 16.5 | 0.00 | 0.00 | 0.00 | 75 | 1005.3 |
| 20260505054252 | 73 | 231 | 7.0 | 16.5 | 0.00 | 0.00 | 0.00 | 75 | 1005.3 |
| 20260505054232 | 73 | 180 | 7.0 | 16.5 | 0.00 | 0.00 | 0.00 | 75 | 1005.3 |
| 20260505054129 | 73 | 193 | 6.1 | 16.5 | 0.00 | 0.00 | 0.00 | 75 | 1005.3 |
| 20260505054029 | 73 | 190 | 6.1 | 16.5 | 0.00 | 0.00 | 0.00 | 75 | 1005.2 |
| 20260505053928 | 73 | 200 | 7.8 | 16.5 | 0.00 | 0.00 | 0.00 | 75 | 1005.4 |
| 20260505053825 | 73 | 224 | 7.8 | 16.5 | 0.00 | 0.00 | 0.00 | 75 | 1005.4 |
| 20260505053753 | 73 | 180 | 7.8 | 16.5 | 0.00 | 0.00 | 0.00 | 75 | 1005.3 |
| 20260505053722 | 73 | 213 | 7.0 | 16.5 | 0.00 | 0.00 | 0.00 | 75 | 1005.3 |
| 20260505053624 | 73 | 172 | 8.7 | 16.5 | 0.00 | 0.00 | 0.00 | 75 | 1005.4 |
| 20260505053520 | 73 | 206 | 7.8 | 16.5 | 0.00 | 0.00 | 0.00 | 75 | 1005.4 |
| 20260505053420 | 73 | 162 | 7.0 | 13.9 | 0.00 | 0.00 | 0.00 | 75 | 1005.4 |
| 20260505053320 | 73 | 202 | 7.8 | 13.9 | 0.00 | 0.00 | 0.00 | 75 | 1005.4 |
| 20260505053253 | 73 | 199 | 7.0 | 13.9 | 0.00 | 0.00 | 0.00 | 75 | 1005.4 |
| 20260505053220 | 73 | 176 | 6.1 | 13.9 | 0.00 | 0.00 | 0.00 | 75 | 1005.4 |
| 20260505053121 | 73 | 138 | 5.2 | 13.0 | 0.00 | 0.00 | 0.00 | 74 | 1005.5 |
| 20260505053019 | 74 | 169 | 6.1 | 13.0 | 0.00 | 0.00 | 0.00 | 74 | 1005.5 |
| 20260505052917 | 74 | 207 | 6.1 | 13.9 | 0.00 | 0.00 | 0.00 | 74 | 1005.5 |
| 20260505052818 | 74 | 173 | 5.2 | 13.9 | 0.00 | 0.00 | 0.00 | 74 | 1005.4 |
| 20260505052749 | 74 | 178 | 6.1 | 13.9 | 0.00 | 0.00 | 0.00 | 74 | 1005.4 |
| 20260505052719 | 74 | 171 | 7.0 | 13.9 | 0.00 | 0.00 | 0.00 | 74 | 1005.4 |
| 20260505052617 | 74 | 180 | 8.7 | 13.9 | 0.00 | 0.00 | 0.00 | 74 | 1005.4 |
| 20260505052517 | 74 | 145 | 6.1 | 13.9 | 0.00 | 0.00 | 0.00 | 74 | 1005.4 |
| 20260505052418 | 74 | 188 | 6.1 | 13.9 | 0.00 | 0.00 | 0.00 | 74 | 1005.5 |
| 20260505052318 | 74 | 213 | 6.1 | 13.9 | 0.00 | 0.00 | 0.00 | 74 | 1005.5 |
| 20260505052251 | 74 | 154 | 6.1 | 13.9 | 0.00 | 0.00 | 0.00 | 74 | 1005.6 |
| 20260505052218 | 74 | 214 | 6.1 | 13.9 | 0.00 | 0.00 | 0.00 | 74 | 1005.6 |
| 20260505052118 | 74 | 166 | 7.8 | 13.9 | 0.00 | 0.00 | 0.00 | 74 | 1005.5 |
| 20260505052018 | 74 | 178 | 7.8 | 13.9 | 0.00 | 0.00 | 0.00 | 74 | 1005.6 |
| 20260505051918 | 74 | 176 | 6.1 | 13.9 | 0.00 | 0.00 | 0.00 | 74 | 1005.6 |
| 20260505051814 | 74 | 178 | 6.1 | 13.9 | 0.00 | 0.00 | 0.00 | 74 | 1005.6 |
| 20260505051751 | 74 | 168 | 7.0 | 13.9 | 0.00 | 0.00 | 0.00 | 74 | 1005.6 |
| 20260505051714 | 74 | 172 | 7.0 | 13.9 | 0.00 | 0.00 | 0.00 | 74 | 1005.6 |
| 20260505051612 | 74 | 172 | 7.8 | 13.9 | 0.00 | 0.00 | 0.00 | 74 | 1005.6 |
| 20260505051510 | 74 | 212 | 7.8 | 14.8 | 0.00 | 0.00 | 0.00 | 74 | 1005.6 |
| 20260505051409 | 74 | 158 | 7.8 | 14.8 | 0.00 | 0.00 | 0.00 | 74 | 1005.6 |
| 20260505051308 | 74 | 173 | 7.8 | 14.8 | 0.00 | 0.00 | 0.00 | 74 | 1005.7 |
| 20260505051252 | 74 | 195 | 7.0 | 14.8 | 0.00 | 0.00 | 0.00 | 74 | 1005.7 |
| 20260505051208 | 74 | 178 | 7.0 | 14.8 | 0.00 | 0.00 | 0.00 | 74 | 1005.7 |
| 20260505051105 | 74 | 159 | 7.8 | 14.8 | 0.00 | 0.00 | 0.00 | 74 | 1005.7 |
| 20260505051006 | 74 | 157 | 7.8 | 14.8 | 0.00 | 0.00 | 0.00 | 74 | 1005.7 |
| 20260505050905 | 74 | 179 | 7.0 | 14.8 | 0.00 | 0.00 | 0.00 | 74 | 1005.7 |
| 20260505050806 | 74 | 204 | 6.1 | 14.8 | 0.00 | 0.00 | 0.00 | 74 | 1005.7 |
| 20260505050749 | 74 | 178 | 5.2 | 14.8 | 0.00 | 0.00 | 0.00 | 74 | 1005.7 |
| 20260505050703 | 74 | 180 | 6.1 | 14.8 | 0.00 | 0.00 | 0.00 | 74 | 1005.8 |
| 20260505050603 | 74 | 197 | 7.0 | 14.8 | 0.00 | 0.00 | 0.00 | 74 | 1005.7 |
| 20260505050505 | 74 | 196 | 6.1 | 14.8 | 0.00 | 0.00 | 0.00 | 74 | 1005.7 |
| 20260505050405 | 74 | 179 | 7.0 | 14.8 | 0.00 | 0.00 | 0.00 | 74 | 1005.8 |
| 20260505050302 | 74 | 223 | 6.1 | 14.8 | 0.00 | 0.00 | 0.00 | 73 | 1005.7 |
| 20260505050248 | 74 | 209 | 6.1 | 14.8 | 0.00 | 0.00 | 0.00 | 73 | 1005.7 |
| 20260505050156 | 74 | 216 | 4.3 | 14.8 | 0.00 | 0.00 | 0.00 | 73 | 1005.7 |
| 20260505041739 | 74 | 176 | 7.8 | 14.8 | 0.00 | 0.00 | 0.00 | 72 | 1005.7 |
| 20260505041703 | 74 | 144 | 8.7 | 14.8 | 0.00 | 0.00 | 0.00 | 72 | 1005.7 |
| 20260505041603 | 74 | 145 | 8.7 | 14.8 | 0.00 | 0.00 | 0.00 | 72 | 1005.8 |
| 20260505041503 | 74 | 196 | 7.0 | 16.5 | 0.00 | 0.00 | 0.00 | 72 | 1005.9 |
| 20260505041359 | 74 | 176 | 6.1 | 16.5 | 0.00 | 0.00 | 0.00 | 72 | 1005.9 |
| 20260505041259 | 74 | 183 | 7.0 | 16.5 | 0.00 | 0.00 | 0.00 | 72 | 1005.8 |
| 20260505041237 | 74 | 165 | 7.0 | 16.5 | 0.00 | 0.00 | 0.00 | 72 | 1005.8 |
| 20260505041157 | 74 | 196 | 7.8 | 16.5 | 0.00 | 0.00 | 0.00 | 71 | 1005.8 |
| 20260505041106 | 74 | 183 | 7.0 | 16.5 | 0.00 | 0.00 | 0.00 | 71 | 1005.9 |
| 20260505041059 | 75 | 138 | 8.7 | 16.5 | 0.00 | 0.00 | 0.00 | 72 | 1005.8 |
| 20260505041026 | 74 | 186 | 7.8 | 16.5 | 0.00 | 0.00 | 0.00 | 71 | 1005.7 |
| 20260505040957 | 75 | 168 | 7.0 | 16.5 | 0.00 | 0.00 | 0.00 | 71 | 1005.8 |
| 20260505040927 | 74 | 159 | 7.8 | 16.5 | 0.00 | 0.00 | 0.00 | 71 | 1005.8 |
| 20260505040917 | 75 | 154 | 8.7 | 16.5 | 0.00 | 0.00 | 0.00 | 71 | 1005.8 |
| 20260505040852 | 74 | 161 | 8.7 | 16.5 | 0.00 | 0.00 | 0.00 | 71 | 1005.8 |
| 20260505040614 | 74 | 213 | 7.8 | 13.9 | 0.00 | 0.00 | 0.00 | 71 | 1005.8 |
| 20260505040545 | 74 | 168 | 8.7 | 13.9 | 0.00 | 0.00 | 0.00 | 71 | 1005.9 |
| 20260505040516 | 74 | 147 | 7.8 | 15.6 | 0.00 | 0.00 | 0.00 | 71 | 1005.8 |
| 20260505040448 | 74 | 195 | 7.0 | 16.5 | 0.00 | 0.00 | 0.00 | 71 | 1005.9 |
| 20260505040155 | 75 | 189 | 5.2 | 16.5 | 0.00 | 0.00 | 0.00 | 71 | 1005.8 |
| 20260505040145 | 74 | 149 | 6.1 | 16.5 | 0.00 | 0.00 | 0.00 | 71 | 1005.9 |
| 20260505040112 | 75 | 192 | 6.1 | 16.5 | 0.00 | 0.00 | 0.00 | 71 | 1005.9 |
| 20260505040042 | 75 | 171 | 7.0 | 16.5 | 0.00 | 0.00 | 0.00 | 71 | 1005.9 |
| 20260505040012 | 75 | 175 | 6.1 | 16.5 | 0.00 | 0.00 | 0.00 | 71 | 1005.9 |
| 20260505035941 | 75 | 189 | 5.2 | 16.5 | 0.00 | 0.00 | 0.00 | 71 | 1005.8 |
| 20260505035631 | 75 | 188 | 7.0 | 16.5 | 0.00 | 0.00 | 0.00 | 71 | 1005.9 |
| 20260505035531 | 75 | 144 | 8.7 | 16.5 | 0.00 | 0.00 | 0.00 | 71 | 1005.8 |
| 20260505035432 | 75 | 176 | 8.7 | 16.5 | 0.00 | 0.00 | 0.00 | 71 | 1005.8 |
| 20260505035333 | 75 | 182 | 7.8 | 16.5 | 0.00 | 0.00 | 0.00 | 71 | 1005.8 |
| 20260505035232 | 75 | 173 | 7.0 | 15.6 | 0.00 | 0.00 | 0.00 | 71 | 1005.8 |
| 20260505035131 | 75 | 159 | 7.0 | 15.6 | 0.00 | 0.00 | 0.00 | 71 | 1005.8 |
| 20260505035032 | 75 | 128 | 7.8 | 15.6 | 0.00 | 0.00 | 0.00 | 71 | 1005.7 |
| 20260505034934 | 75 | 172 | 8.7 | 15.6 | 0.00 | 0.00 | 0.00 | 71 | 1005.7 |
| 20260505034832 | 75 | 166 | 7.0 | 15.6 | 0.00 | 0.00 | 0.00 | 71 | 1005.8 |
| 20260505034731 | 75 | 152 | 7.8 | 15.6 | 0.00 | 0.00 | 0.00 | 71 | 1005.8 |
| 20260505034631 | 75 | 175 | 7.8 | 15.6 | 0.00 | 0.00 | 0.00 | 71 | 1005.8 |
| 20260505034531 | 75 | 154 | 6.1 | 13.0 | 0.00 | 0.00 | 0.00 | 71 | 1005.7 |
| 20260505034433 | 75 | 224 | 6.1 | 12.2 | 0.00 | 0.00 | 0.00 | 71 | 1005.7 |
| 20260505034332 | 75 | 192 | 7.0 | 12.2 | 0.00 | 0.00 | 0.00 | 71 | 1005.8 |
| 20260505034231 | 75 | 135 | 6.1 | 12.2 | 0.00 | 0.00 | 0.00 | 71 | 1005.8 |
| 20260505034132 | 75 | 199 | 7.0 | 14.8 | 0.00 | 0.00 | 0.00 | 71 | 1005.7 |